Time,TemperatureF,DewpointF,PressureIn,WindDirection,WindDirectionDegrees,WindSpeedMPH,WindSpeedGustMPH,Humidity,HourlyPrecipIn,Conditions,Clouds,dailyrainin,SolarRadiationWatts/m^2,SoftwareType,DateUTC
2013-08-10 00:03:00,59.6,57.6,30.05,North,11,0.0,0.0,93,0.00,,,0.00,0,Wunderground v.1.15,2013-08-10 05:03:00,
2013-08-10 00:05:00,59.7,57.7,30.05,North,11,0.0,0.0,93,0.00,,,0.00,0,Wunderground v.1.15,2013-08-10 05:05:00,
2013-08-10 00:06:00,59.7,57.7,30.05,North,11,0.0,0.0,93,0.00,,,0.00,0,Wunderground v.1.15,2013-08-10 05:06:00,
2013-08-10 00:08:00,59.6,57.6,30.05,North,11,0.0,0.0,93,0.00,,,0.00,0,Wunderground v.1.15,2013-08-10 05:08:00,
2013-08-10 00:09:00,59.6,57.6,30.05,North,11,0.0,0.0,93,0.00,,,0.00,0,Wunderground v.1.15,2013-08-10 05:09:00,
2013-08-10 00:10:00,59.5,57.2,30.05,North,11,0.0,0.0,92,0.00,,,0.00,0,Wunderground v.1.15,2013-08-10 05:10:00,
2013-08-10 00:13:00,59.3,57.3,30.05,North,11,0.0,0.0,93,0.00,,,0.00,0,Wunderground v.1.15,2013-08-10 05:13:00,
2013-08-10 00:14:00,59.3,57.3,30.05,North,11,0.0,0.0,93,0.00,,,0.00,0,Wunderground v.1.15,2013-08-10 05:14:00,
2013-08-10 00:15:00,59.3,57.3,30.05,North,11,0.0,0.0,93,0.00,,,0.00,0,Wunderground v.1.15,2013-08-10 05:15:00,
2013-08-10 00:19:00,59.6,57.9,30.05,North,11,0.0,0.0,94,0.00,,,0.00,0,Wunderground v.1.15,2013-08-10 05:19:00,
2013-08-10 00:20:00,59.6,57.9,30.05,North,11,0.0,0.0,94,0.00,,,0.00,0,Wunderground v.1.15,2013-08-10 05:20:00,
2013-08-10 00:23:00,59.6,57.6,30.06,North,11,0.0,0.0,93,0.00,,,0.00,0,Wunderground v.1.15,2013-08-10 05:23:00,
2013-08-10 00:26:00,59.4,57.4,30.05,North,11,0.0,0.0,93,0.00,,,0.00,0,Wunderground v.1.15,2013-08-10 05:26:00,
2013-08-10 00:27:00,59.3,57.3,30.06,North,11,0.0,0.0,93,0.00,,,0.00,0,Wunderground v.1.15,2013-08-10 05:27:00,
2013-08-10 00:28:00,59.3,57.3,30.06,North,11,0.0,0.0,93,0.00,,,0.00,0,Wunderground v.1.15,2013-08-10 05:28:00,
2013-08-10 00:29:00,59.2,57.2,30.06,North,11,0.0,0.0,93,0.00,,,0.00,0,Wunderground v.1.15,2013-08-10 05:29:00,
2013-08-10 00:32:00,59.3,57.6,30.06,North,11,0.0,0.0,94,0.00,,,0.00,0,Wunderground v.1.15,2013-08-10 05:32:00,
2013-08-10 00:34:00,59.5,57.8,30.06,North,11,0.0,0.0,94,0.00,,,0.00,0,Wunderground v.1.15,2013-08-10 05:34:00,
2013-08-10 00:35:00,59.5,57.8,30.06,North,11,0.0,0.0,94,0.00,,,0.00,0,Wunderground v.1.15,2013-08-10 05:35:00,
2013-08-10 00:39:00,59.6,57.6,30.06,North,11,0.0,0.0,93,0.00,,,0.00,0,Wunderground v.1.15,2013-08-10 05:39:00,
2013-08-10 00:40:00,59.5,57.2,30.06,North,11,0.0,0.0,92,0.00,,,0.00,0,Wunderground v.1.15,2013-08-10 05:40:00,
2013-08-10 00:42:00,59.2,56.9,30.06,North,11,0.0,0.0,92,0.00,,,0.00,0,Wunderground v.1.15,2013-08-10 05:42:00,
2013-08-10 00:43:00,59.1,56.8,30.06,North,11,0.0,0.0,92,0.00,,,0.00,0,Wunderground v.1.15,2013-08-10 05:43:00,
2013-08-10 00:45:00,58.7,56.4,30.06,North,11,0.0,0.0,92,0.00,,,0.00,0,Wunderground v.1.15,2013-08-10 05:45:00,
2013-08-10 00:47:00,58.6,56.3,30.06,North,11,0.0,0.0,92,0.00,,,0.00,0,Wunderground v.1.15,2013-08-10 05:47:00,
2013-08-10 00:48:00,58.7,56.7,30.06,North,11,0.0,0.0,93,0.00,,,0.00,0,Wunderground v.1.15,2013-08-10 05:48:00,
2013-08-10 00:49:00,58.7,57.0,30.06,North,11,0.0,0.0,94,0.00,,,0.00,0,Wunderground v.1.15,2013-08-10 05:49:00,
2013-08-10 00:52:00,58.9,57.2,30.06,North,11,0.0,0.0,94,0.00,,,0.00,0,Wunderground v.1.15,2013-08-10 05:52:00,
2013-08-10 00:53:00,59.1,57.4,30.06,North,11,0.0,0.0,94,0.00,,,0.00,0,Wunderground v.1.15,2013-08-10 05:53:00,
2013-08-10 00:55:00,59.2,57.5,30.06,North,11,0.0,0.0,94,0.00,,,0.00,0,Wunderground v.1.15,2013-08-10 05:55:00,
2013-08-10 00:59:00,59.1,57.1,30.06,North,11,0.0,0.0,93,0.00,,,0.00,0,Wunderground v.1.15,2013-08-10 05:59:00,
2013-08-10 01:00:00,59.0,57.0,30.06,North,11,0.0,0.0,93,0.00,,,0.00,0,Wunderground v.1.15,2013-08-10 06:00:00,
2013-08-10 01:02:00,58.9,56.9,30.07,North,11,0.0,0.0,93,0.00,,,0.00,0,Wunderground v.1.15,2013-08-10 06:02:00,
2013-08-10 01:05:00,58.9,56.9,30.07,North,11,0.0,0.0,93,0.00,,,0.00,0,Wunderground v.1.15,2013-08-10 06:05:00,
2013-08-10 01:06:00,58.8,56.8,30.07,North,11,0.0,0.0,93,0.00,,,0.00,0,Wunderground v.1.15,2013-08-10 06:06:00,
2013-08-10 01:08:00,58.7,56.7,30.07,North,11,0.0,0.0,93,0.00,,,0.00,0,Wunderground v.1.15,2013-08-10 06:08:00,
2013-08-10 01:11:00,58.7,57.0,30.07,North,11,0.0,0.0,94,0.00,,,0.00,0,Wunderground v.1.15,2013-08-10 06:11:00,
2013-08-10 01:15:00,58.4,56.4,30.07,North,11,0.0,0.0,93,0.00,,,0.00,0,Wunderground v.1.15,2013-08-10 06:15:00,
2013-08-10 01:16:00,58.3,56.3,30.07,North,11,0.0,0.0,93,0.00,,,0.00,0,Wunderground v.1.15,2013-08-10 06:16:00,
2013-08-10 01:17:00,58.3,56.6,30.07,North,11,0.0,0.0,94,0.00,,,0.00,0,Wunderground v.1.15,2013-08-10 06:17:00,
2013-08-10 01:22:00,58.4,56.7,30.07,North,11,0.0,0.0,94,0.00,,,0.00,0,Wunderground v.1.15,2013-08-10 06:22:00,
2013-08-10 01:23:00,58.3,56.6,30.07,North,11,0.0,0.0,94,0.00,,,0.00,0,Wunderground v.1.15,2013-08-10 06:23:00,
2013-08-10 01:24:00,58.4,56.7,30.07,North,11,0.0,0.0,94,0.00,,,0.00,0,Wunderground v.1.15,2013-08-10 06:24:00,
2013-08-10 01:26:00,58.6,57.2,30.07,North,11,0.0,0.0,95,0.00,,,0.00,0,Wunderground v.1.15,2013-08-10 06:26:00,
2013-08-10 01:29:00,59.0,57.6,30.07,North,11,0.0,0.0,95,0.00,,,0.00,0,Wunderground v.1.15,2013-08-10 06:29:00,
2013-08-10 01:30:00,59.3,57.9,30.07,North,11,0.0,0.0,95,0.00,,,0.00,0,Wunderground v.1.15,2013-08-10 06:30:00,
2013-08-10 01:33:00,60.0,58.6,30.07,North,11,0.0,0.0,95,0.00,,,0.00,0,Wunderground v.1.15,2013-08-10 06:33:00,
2013-08-10 01:36:00,60.7,59.0,30.07,NNE,12,0.0,0.0,94,0.00,,,0.00,0,Wunderground v.1.15,2013-08-10 06:36:00,
2013-08-10 01:37:00,61.0,59.3,30.07,NNE,12,0.0,0.0,94,0.00,,,0.00,0,Wunderground v.1.15,2013-08-10 06:37:00,
2013-08-10 01:38:00,61.3,59.6,30.07,NNE,12,0.0,0.0,94,0.00,,,0.00,0,Wunderground v.1.15,2013-08-10 06:38:00,
2013-08-10 01:40:00,61.8,59.8,30.07,North,11,0.0,0.0,93,0.00,,,0.00,0,Wunderground v.1.15,2013-08-10 06:40:00,
2013-08-10 01:42:00,62.2,59.5,30.07,North,11,0.0,1.0,91,0.00,,,0.00,0,Wunderground v.1.15,2013-08-10 06:42:00,
2013-08-10 01:45:00,62.8,59.8,30.08,North,11,0.0,1.0,90,0.00,,,0.00,0,Wunderground v.1.15,2013-08-10 06:45:00,
2013-08-10 01:46:00,62.9,59.6,30.08,North,11,0.0,1.0,89,0.00,,,0.00,0,Wunderground v.1.15,2013-08-10 06:46:00,
2013-08-10 01:48:00,63.0,59.7,30.08,North,11,0.0,1.0,89,0.00,,,0.00,0,Wunderground v.1.15,2013-08-10 06:48:00,
2013-08-10 01:49:00,63.1,59.8,30.08,North,11,0.0,1.0,89,0.00,,,0.00,0,Wunderground v.1.15,2013-08-10 06:49:00,
2013-08-10 01:50:00,63.1,59.5,30.08,North,11,0.0,0.0,88,0.00,,,0.00,0,Wunderground v.1.15,2013-08-10 06:50:00,
2013-08-10 01:51:00,63.1,59.5,30.07,North,11,0.0,0.0,88,0.00,,,0.00,0,Wunderground v.1.15,2013-08-10 06:51:00,
2013-08-10 01:54:00,63.1,59.5,30.08,North,11,0.0,0.0,88,0.00,,,0.00,0,Wunderground v.1.15,2013-08-10 06:54:00,
2013-08-10 01:57:00,62.9,59.3,30.08,North,11,0.0,0.0,88,0.00,,,0.00,0,Wunderground v.1.15,2013-08-10 06:57:00,
2013-08-10 01:58:00,62.9,59.3,30.08,North,11,0.0,0.0,88,0.00,,,0.00,0,Wunderground v.1.15,2013-08-10 06:58:00,
2013-08-10 01:59:00,62.8,59.2,30.08,North,11,0.0,0.0,88,0.00,,,0.00,0,Wunderground v.1.15,2013-08-10 06:59:00,
2013-08-10 02:01:00,62.7,59.1,30.08,North,11,0.0,0.0,88,0.00,,,0.00,0,Wunderground v.1.15,2013-08-10 07:01:00,
2013-08-10 02:03:00,62.6,59.0,30.08,North,11,0.0,0.0,88,0.00,,,0.00,0,Wunderground v.1.15,2013-08-10 07:03:00,
2013-08-10 02:04:00,62.5,58.9,30.07,North,11,0.0,0.0,88,0.00,,,0.00,0,Wunderground v.1.15,2013-08-10 07:04:00,
2013-08-10 02:05:00,62.4,59.1,30.08,North,11,0.0,0.0,89,0.00,,,0.00,0,Wunderground v.1.15,2013-08-10 07:05:00,
2013-08-10 02:08:00,62.1,58.8,30.08,North,11,0.0,0.0,89,0.00,,,0.00,0,Wunderground v.1.15,2013-08-10 07:08:00,
2013-08-10 02:10:00,61.8,58.5,30.08,North,11,0.0,0.0,89,0.00,,,0.00,0,Wunderground v.1.15,2013-08-10 07:10:00,
2013-08-10 02:11:00,61.8,58.5,30.08,North,11,0.0,0.0,89,0.00,,,0.00,0,Wunderground v.1.15,2013-08-10 07:11:00,
2013-08-10 02:13:00,61.4,58.1,30.08,North,11,0.0,0.0,89,0.00,,,0.00,0,Wunderground v.1.15,2013-08-10 07:13:00,
2013-08-10 02:15:00,61.2,58.2,30.08,North,11,0.0,0.0,90,0.00,,,0.00,0,Wunderground v.1.15,2013-08-10 07:15:00,
2013-08-10 02:16:00,61.1,58.1,30.08,North,11,0.0,0.0,90,0.00,,,0.00,0,Wunderground v.1.15,2013-08-10 07:16:00,
2013-08-10 02:19:00,60.8,57.8,30.08,North,11,0.0,0.0,90,0.00,,,0.00,0,Wunderground v.1.15,2013-08-10 07:19:00,
2013-08-10 02:21:00,60.6,58.0,30.08,North,11,0.0,0.0,91,0.00,,,0.00,0,Wunderground v.1.15,2013-08-10 07:21:00,
2013-08-10 02:22:00,60.6,58.0,30.08,North,11,0.0,0.0,91,0.00,,,0.00,0,Wunderground v.1.15,2013-08-10 07:22:00,
2013-08-10 02:23:00,60.5,57.9,30.08,North,11,0.0,0.0,91,0.00,,,0.00,0,Wunderground v.1.15,2013-08-10 07:23:00,
2013-08-10 02:25:00,60.4,57.8,30.08,North,11,0.0,0.0,91,0.00,,,0.00,0,Wunderground v.1.15,2013-08-10 07:25:00,
2013-08-10 02:26:00,60.2,57.9,30.08,North,11,0.0,0.0,92,0.00,,,0.00,0,Wunderground v.1.15,2013-08-10 07:26:00,
2013-08-10 02:28:00,60.2,57.9,30.08,North,11,0.0,0.0,92,0.00,,,0.00,0,Wunderground v.1.15,2013-08-10 07:28:00,
2013-08-10 02:30:00,60.1,57.8,30.08,North,11,0.0,0.0,92,0.00,,,0.00,0,Wunderground v.1.15,2013-08-10 07:30:00,
2013-08-10 02:31:00,60.1,57.8,30.08,North,11,0.0,0.0,92,0.00,,,0.00,0,Wunderground v.1.15,2013-08-10 07:31:00,
2013-08-10 02:33:00,60.0,57.7,30.08,North,11,0.0,0.0,92,0.00,,,0.00,0,Wunderground v.1.15,2013-08-10 07:33:00,
2013-08-10 02:34:00,60.0,57.7,30.08,North,11,0.0,0.0,92,0.00,,,0.00,0,Wunderground v.1.15,2013-08-10 07:34:00,
2013-08-10 02:35:00,59.9,57.6,30.08,North,11,0.0,0.0,92,0.00,,,0.00,0,Wunderground v.1.15,2013-08-10 07:35:00,
2013-08-10 02:36:00,59.8,57.5,30.08,North,11,0.0,0.0,92,0.00,,,0.00,0,Wunderground v.1.15,2013-08-10 07:36:00,
2013-08-10 02:40:00,59.5,57.2,30.08,North,11,0.0,0.0,92,0.00,,,0.00,0,Wunderground v.1.15,2013-08-10 07:40:00,
2013-08-10 02:41:00,59.5,57.5,30.08,North,11,0.0,0.0,93,0.00,,,0.00,0,Wunderground v.1.15,2013-08-10 07:41:00,
2013-08-10 02:44:00,59.2,56.9,30.08,North,11,0.0,0.0,92,0.00,,,0.00,0,Wunderground v.1.15,2013-08-10 07:44:00,
2013-08-10 02:47:00,58.4,56.1,30.08,North,11,0.0,0.0,92,0.00,,,0.00,0,Wunderground v.1.15,2013-08-10 07:47:00,
2013-08-10 02:48:00,58.3,56.0,30.08,North,11,0.0,0.0,92,0.00,,,0.00,0,Wunderground v.1.15,2013-08-10 07:48:00,
2013-08-10 02:50:00,58.1,56.1,30.08,North,11,0.0,0.0,93,0.00,,,0.00,0,Wunderground v.1.15,2013-08-10 07:50:00,
2013-08-10 02:52:00,58.2,56.5,30.08,North,11,0.0,0.0,94,0.00,,,0.00,0,Wunderground v.1.15,2013-08-10 07:52:00,
2013-08-10 02:53:00,58.3,56.6,30.08,North,11,0.0,0.0,94,0.00,,,0.00,0,Wunderground v.1.15,2013-08-10 07:53:00,
2013-08-10 02:54:00,58.4,56.7,30.08,North,11,0.0,0.0,94,0.00,,,0.00,0,Wunderground v.1.15,2013-08-10 07:54:00,
2013-08-10 02:57:00,58.6,56.9,30.08,North,11,0.0,0.0,94,0.00,,,0.00,0,Wunderground v.1.15,2013-08-10 07:57:00,
2013-08-10 02:58:00,58.5,56.8,30.08,North,11,0.0,0.0,94,0.00,,,0.00,0,Wunderground v.1.15,2013-08-10 07:58:00,
2013-08-10 03:00:00,58.4,56.4,30.09,North,11,0.0,0.0,93,0.00,,,0.00,0,Wunderground v.1.15,2013-08-10 08:00:00,
2013-08-10 03:01:00,58.4,56.7,30.09,North,11,0.0,0.0,94,0.00,,,0.00,0,Wunderground v.1.15,2013-08-10 08:01:00,
2013-08-10 03:02:00,58.4,56.7,30.09,North,11,0.0,0.0,94,0.00,,,0.00,0,Wunderground v.1.15,2013-08-10 08:02:00,
2013-08-10 03:03:00,58.4,56.7,30.09,North,11,0.0,0.0,94,0.00,,,0.00,0,Wunderground v.1.15,2013-08-10 08:03:00,
2013-08-10 03:06:00,58.2,56.5,30.09,North,11,0.0,0.0,94,0.00,,,0.00,0,Wunderground v.1.15,2013-08-10 08:06:00,
2013-08-10 03:07:00,58.2,56.5,30.09,North,11,0.0,0.0,94,0.00,,,0.00,0,Wunderground v.1.15,2013-08-10 08:07:00,
2013-08-10 03:08:00,58.2,56.5,30.09,North,11,0.0,0.0,94,0.00,,,0.00,0,Wunderground v.1.15,2013-08-10 08:08:00,
2013-08-10 03:09:00,58.2,56.5,30.09,North,11,0.0,0.0,94,0.00,,,0.00,0,Wunderground v.1.15,2013-08-10 08:09:00,
2013-08-10 03:12:00,58.0,56.3,30.09,North,11,0.0,0.0,94,0.00,,,0.00,0,Wunderground v.1.15,2013-08-10 08:12:00,
2013-08-10 03:13:00,58.1,56.4,30.09,North,11,0.0,0.0,94,0.00,,,0.00,0,Wunderground v.1.15,2013-08-10 08:13:00,
2013-08-10 03:14:00,58.2,56.5,30.09,North,11,0.0,0.0,94,0.00,,,0.00,0,Wunderground v.1.15,2013-08-10 08:14:00,
2013-08-10 03:15:00,58.2,56.5,30.09,North,11,0.0,0.0,94,0.00,,,0.00,0,Wunderground v.1.15,2013-08-10 08:15:00,
2013-08-10 03:17:00,58.3,56.6,30.09,North,11,0.0,0.0,94,0.00,,,0.00,0,Wunderground v.1.15,2013-08-10 08:17:00,
2013-08-10 03:20:00,58.1,56.1,30.09,North,11,0.0,0.0,93,0.00,,,0.00,0,Wunderground v.1.15,2013-08-10 08:20:00,
2013-08-10 03:22:00,57.8,55.8,30.09,North,11,0.0,0.0,93,0.00,,,0.00,0,Wunderground v.1.15,2013-08-10 08:22:00,
2013-08-10 03:24:00,58.0,56.3,30.09,North,11,0.0,0.0,94,0.00,,,0.00,0,Wunderground v.1.15,2013-08-10 08:24:00,
2013-08-10 03:26:00,58.1,56.4,30.09,North,11,0.0,0.0,94,0.00,,,0.00,0,Wunderground v.1.15,2013-08-10 08:26:00,
2013-08-10 03:28:00,58.1,56.4,30.09,North,11,0.0,0.0,94,0.00,,,0.00,0,Wunderground v.1.15,2013-08-10 08:28:00,
2013-08-10 03:29:00,58.0,56.0,30.09,North,11,0.0,0.0,93,0.00,,,0.00,0,Wunderground v.1.15,2013-08-10 08:29:00,
2013-08-10 03:30:00,58.0,56.3,30.09,North,11,0.0,0.0,94,0.00,,,0.00,0,Wunderground v.1.15,2013-08-10 08:30:00,
2013-08-10 03:32:00,58.0,56.3,30.09,North,11,0.0,0.0,94,0.00,,,0.00,0,Wunderground v.1.15,2013-08-10 08:32:00,
2013-08-10 03:34:00,58.0,56.3,30.09,North,11,0.0,0.0,94,0.00,,,0.00,0,Wunderground v.1.15,2013-08-10 08:34:00,
2013-08-10 03:35:00,58.0,56.3,30.09,North,11,0.0,0.0,94,0.00,,,0.00,0,Wunderground v.1.15,2013-08-10 08:35:00,
2013-08-10 03:37:00,58.1,56.4,30.09,North,11,0.0,0.0,94,0.00,,,0.00,0,Wunderground v.1.15,2013-08-10 08:37:00,
2013-08-10 03:41:00,57.5,55.5,30.09,North,11,0.0,0.0,93,0.00,,,0.00,0,Wunderground v.1.15,2013-08-10 08:41:00,
2013-08-10 03:42:00,57.4,55.4,30.09,North,11,0.0,0.0,93,0.00,,,0.00,0,Wunderground v.1.15,2013-08-10 08:42:00,
2013-08-10 03:46:00,57.2,55.5,30.09,North,11,0.0,0.0,94,0.00,,,0.00,0,Wunderground v.1.15,2013-08-10 08:46:00,
2013-08-10 03:47:00,57.2,55.5,30.09,North,11,0.0,0.0,94,0.00,,,0.00,0,Wunderground v.1.15,2013-08-10 08:47:00,
2013-08-10 03:48:00,57.2,55.5,30.09,North,11,0.0,0.0,94,0.00,,,0.00,0,Wunderground v.1.15,2013-08-10 08:48:00,
2013-08-10 03:49:00,57.3,55.6,30.09,North,11,0.0,0.0,94,0.00,,,0.00,0,Wunderground v.1.15,2013-08-10 08:49:00,
2013-08-10 03:51:00,57.3,55.6,30.09,North,11,0.0,0.0,94,0.00,,,0.00,0,Wunderground v.1.15,2013-08-10 08:51:00,
2013-08-10 03:53:00,57.4,55.7,30.09,North,11,0.0,0.0,94,0.00,,,0.00,0,Wunderground v.1.15,2013-08-10 08:53:00,
2013-08-10 03:54:00,57.4,55.7,30.09,North,11,0.0,0.0,94,0.00,,,0.00,0,Wunderground v.1.15,2013-08-10 08:54:00,
2013-08-10 03:57:00,57.5,55.8,30.09,North,11,0.0,0.0,94,0.00,,,0.00,0,Wunderground v.1.15,2013-08-10 08:57:00,
2013-08-10 03:59:00,57.4,55.7,30.09,North,11,0.0,0.0,94,0.00,,,0.00,0,Wunderground v.1.15,2013-08-10 08:59:00,
2013-08-10 04:01:00,57.3,55.6,30.09,North,11,0.0,0.0,94,0.00,,,0.00,0,Wunderground v.1.15,2013-08-10 09:01:00,
2013-08-10 04:02:00,57.2,55.5,30.09,North,11,0.0,0.0,94,0.00,,,0.00,0,Wunderground v.1.15,2013-08-10 09:02:00,
2013-08-10 04:05:00,57.1,55.4,30.09,North,11,0.0,0.0,94,0.00,,,0.00,0,Wunderground v.1.15,2013-08-10 09:05:00,
2013-08-10 04:06:00,57.0,55.3,30.09,North,11,0.0,0.0,94,0.00,,,0.00,0,Wunderground v.1.15,2013-08-10 09:06:00,
2013-08-10 04:07:00,56.9,55.2,30.09,North,11,0.0,0.0,94,0.00,,,0.00,0,Wunderground v.1.15,2013-08-10 09:07:00,
2013-08-10 04:09:00,56.8,55.1,30.09,North,11,0.0,0.0,94,0.00,,,0.00,0,Wunderground v.1.15,2013-08-10 09:09:00,
2013-08-10 04:11:00,56.7,55.0,30.09,North,11,0.0,0.0,94,0.00,,,0.00,0,Wunderground v.1.15,2013-08-10 09:11:00,
2013-08-10 04:12:00,56.5,54.8,30.09,North,11,0.0,0.0,94,0.00,,,0.00,0,Wunderground v.1.15,2013-08-10 09:12:00,
2013-08-10 04:13:00,56.3,54.6,30.09,North,11,0.0,0.0,94,0.00,,,0.00,0,Wunderground v.1.15,2013-08-10 09:13:00,
2013-08-10 04:15:00,56.2,54.5,30.09,North,11,0.0,0.0,94,0.00,,,0.00,0,Wunderground v.1.15,2013-08-10 09:15:00,
2013-08-10 04:16:00,56.2,54.5,30.09,North,11,0.0,0.0,94,0.00,,,0.00,0,Wunderground v.1.15,2013-08-10 09:16:00,
2013-08-10 04:18:00,56.1,54.4,30.09,North,11,0.0,0.0,94,0.00,,,0.00,0,Wunderground v.1.15,2013-08-10 09:18:00,
2013-08-10 04:19:00,56.1,54.4,30.09,North,11,0.0,0.0,94,0.00,,,0.00,0,Wunderground v.1.15,2013-08-10 09:19:00,
2013-08-10 04:22:00,56.1,54.4,30.09,North,11,0.0,0.0,94,0.00,,,0.00,0,Wunderground v.1.15,2013-08-10 09:22:00,
2013-08-10 04:23:00,55.9,54.2,30.09,North,11,0.0,0.0,94,0.00,,,0.00,0,Wunderground v.1.15,2013-08-10 09:23:00,
2013-08-10 04:24:00,55.9,54.2,30.09,North,11,0.0,0.0,94,0.00,,,0.00,0,Wunderground v.1.15,2013-08-10 09:24:00,
2013-08-10 04:25:00,55.6,53.9,30.09,North,11,0.0,0.0,94,0.00,,,0.00,0,Wunderground v.1.15,2013-08-10 09:25:00,
2013-08-10 04:28:00,55.3,53.6,30.09,North,11,0.0,0.0,94,0.00,,,0.00,0,Wunderground v.1.15,2013-08-10 09:28:00,
2013-08-10 04:30:00,55.2,53.5,30.10,North,11,0.0,0.0,94,0.00,,,0.00,0,Wunderground v.1.15,2013-08-10 09:30:00,
2013-08-10 04:31:00,55.0,53.3,30.09,North,11,0.0,0.0,94,0.00,,,0.00,0,Wunderground v.1.15,2013-08-10 09:31:00,
2013-08-10 04:32:00,55.0,53.3,30.09,North,11,0.0,0.0,94,0.00,,,0.00,0,Wunderground v.1.15,2013-08-10 09:32:00,
2013-08-10 04:34:00,54.9,53.5,30.09,North,11,0.0,0.0,95,0.00,,,0.00,0,Wunderground v.1.15,2013-08-10 09:34:00,
2013-08-10 04:35:00,54.9,53.5,30.10,North,11,0.0,0.0,95,0.00,,,0.00,0,Wunderground v.1.15,2013-08-10 09:35:00,
2013-08-10 04:36:00,55.0,53.6,30.10,North,11,0.0,0.0,95,0.00,,,0.00,0,Wunderground v.1.15,2013-08-10 09:36:00,
2013-08-10 04:37:00,55.0,53.6,30.10,North,11,0.0,0.0,95,0.00,,,0.00,0,Wunderground v.1.15,2013-08-10 09:37:00,
2013-08-10 04:38:00,55.0,53.6,30.10,North,11,0.0,0.0,95,0.00,,,0.00,0,Wunderground v.1.15,2013-08-10 09:38:00,
2013-08-10 04:40:00,55.1,53.7,30.10,North,11,0.0,0.0,95,0.00,,,0.00,0,Wunderground v.1.15,2013-08-10 09:40:00,
2013-08-10 04:41:00,55.1,53.7,30.10,North,11,0.0,0.0,95,0.00,,,0.00,0,Wunderground v.1.15,2013-08-10 09:41:00,
2013-08-10 04:42:00,55.0,53.6,30.10,North,11,0.0,0.0,95,0.00,,,0.00,0,Wunderground v.1.15,2013-08-10 09:42:00,
2013-08-10 04:43:00,55.0,53.6,30.10,North,11,0.0,0.0,95,0.00,,,0.00,0,Wunderground v.1.15,2013-08-10 09:43:00,
2013-08-10 04:47:00,54.8,53.4,30.10,North,11,0.0,0.0,95,0.00,,,0.00,0,Wunderground v.1.15,2013-08-10 09:47:00,
2013-08-10 04:48:00,54.7,53.3,30.10,North,11,0.0,0.0,95,0.00,,,0.00,0,Wunderground v.1.15,2013-08-10 09:48:00,
2013-08-10 04:51:00,54.6,53.2,30.10,North,11,0.0,0.0,95,0.00,,,0.00,0,Wunderground v.1.15,2013-08-10 09:51:00,
2013-08-10 04:52:00,54.6,53.2,30.10,North,11,0.0,0.0,95,0.00,,,0.00,0,Wunderground v.1.15,2013-08-10 09:52:00,
2013-08-10 04:53:00,54.6,53.2,30.10,North,11,0.0,0.0,95,0.00,,,0.00,0,Wunderground v.1.15,2013-08-10 09:53:00,
2013-08-10 04:56:00,54.6,53.2,30.10,North,11,0.0,0.0,95,0.00,,,0.00,0,Wunderground v.1.15,2013-08-10 09:56:00,
2013-08-10 04:58:00,54.6,53.2,30.10,North,11,0.0,0.0,95,0.00,,,0.00,0,Wunderground v.1.15,2013-08-10 09:58:00,
2013-08-10 04:59:00,54.8,53.7,30.10,North,11,0.0,0.0,96,0.00,,,0.00,0,Wunderground v.1.15,2013-08-10 09:59:00,
2013-08-10 05:00:00,54.8,53.7,30.10,North,11,0.0,0.0,96,0.00,,,0.00,0,Wunderground v.1.15,2013-08-10 10:00:00,
2013-08-10 05:03:00,54.9,53.8,30.10,North,11,0.0,0.0,96,0.00,,,0.00,0,Wunderground v.1.15,2013-08-10 10:03:00,
2013-08-10 05:04:00,54.7,53.3,30.10,North,11,0.0,0.0,95,0.00,,,0.00,0,Wunderground v.1.15,2013-08-10 10:04:00,
2013-08-10 05:05:00,54.7,53.3,30.10,North,11,0.0,0.0,95,0.00,,,0.00,0,Wunderground v.1.15,2013-08-10 10:05:00,
2013-08-10 05:09:00,54.5,53.1,30.10,North,11,0.0,0.0,95,0.00,,,0.00,0,Wunderground v.1.15,2013-08-10 10:09:00,
2013-08-10 05:11:00,54.7,53.6,30.10,North,11,0.0,0.0,96,0.00,,,0.00,0,Wunderground v.1.15,2013-08-10 10:11:00,
2013-08-10 05:12:00,54.7,53.6,30.10,North,11,0.0,0.0,96,0.00,,,0.00,0,Wunderground v.1.15,2013-08-10 10:12:00,
2013-08-10 05:14:00,55.0,53.9,30.10,North,11,0.0,0.0,96,0.00,,,0.00,0,Wunderground v.1.15,2013-08-10 10:14:00,
2013-08-10 05:16:00,55.2,54.1,30.09,North,11,0.0,0.0,96,0.00,,,0.00,0,Wunderground v.1.15,2013-08-10 10:16:00,
2013-08-10 05:17:00,55.3,54.2,30.10,North,11,0.0,0.0,96,0.00,,,0.00,0,Wunderground v.1.15,2013-08-10 10:17:00,
2013-08-10 05:18:00,55.2,54.1,30.10,North,11,0.0,0.0,96,0.00,,,0.00,0,Wunderground v.1.15,2013-08-10 10:18:00,
2013-08-10 05:20:00,55.2,54.1,30.09,North,11,0.0,0.0,96,0.00,,,0.00,0,Wunderground v.1.15,2013-08-10 10:20:00,
2013-08-10 05:23:00,54.9,53.5,30.09,North,11,0.0,0.0,95,0.00,,,0.00,0,Wunderground v.1.15,2013-08-10 10:23:00,
2013-08-10 05:24:00,54.9,53.8,30.09,North,11,0.0,0.0,96,0.00,,,0.00,0,Wunderground v.1.15,2013-08-10 10:24:00,
2013-08-10 05:25:00,54.9,53.8,30.09,North,11,0.0,0.0,96,0.00,,,0.00,0,Wunderground v.1.15,2013-08-10 10:25:00,
2013-08-10 05:27:00,54.9,53.8,30.09,North,11,0.0,0.0,96,0.00,,,0.00,0,Wunderground v.1.15,2013-08-10 10:27:00,
2013-08-10 05:29:00,55.0,53.9,30.09,North,11,0.0,0.0,96,0.00,,,0.00,0,Wunderground v.1.15,2013-08-10 10:29:00,
2013-08-10 05:30:00,54.9,53.8,30.09,North,11,0.0,0.0,96,0.00,,,0.00,0,Wunderground v.1.15,2013-08-10 10:30:00,
2013-08-10 05:33:00,54.9,53.8,30.09,North,11,0.0,0.0,96,0.00,,,0.00,0,Wunderground v.1.15,2013-08-10 10:33:00,
2013-08-10 05:34:00,54.8,53.7,30.09,North,11,0.0,0.0,96,0.00,,,0.00,0,Wunderground v.1.15,2013-08-10 10:34:00,
2013-08-10 05:36:00,54.7,53.6,30.09,North,11,0.0,0.0,96,0.00,,,0.00,0,Wunderground v.1.15,2013-08-10 10:36:00,
2013-08-10 05:37:00,54.7,53.6,30.09,North,11,0.0,0.0,96,0.00,,,0.00,0,Wunderground v.1.15,2013-08-10 10:37:00,
2013-08-10 05:40:00,54.6,53.5,30.09,North,11,0.0,0.0,96,0.00,,,0.00,0,Wunderground v.1.15,2013-08-10 10:40:00,
2013-08-10 05:41:00,54.6,53.5,30.09,North,11,0.0,0.0,96,0.00,,,0.00,0,Wunderground v.1.15,2013-08-10 10:41:00,
2013-08-10 05:42:00,54.9,54.1,30.09,North,11,0.0,0.0,97,0.00,,,0.00,0,Wunderground v.1.15,2013-08-10 10:42:00,
2013-08-10 05:46:00,55.1,54.0,30.09,North,11,0.0,0.0,96,0.00,,,0.00,0,Wunderground v.1.15,2013-08-10 10:46:00,
2013-08-10 05:47:00,55.1,54.0,30.09,North,11,0.0,0.0,96,0.00,,,0.00,0,Wunderground v.1.15,2013-08-10 10:47:00,
2013-08-10 05:48:00,55.1,54.0,30.09,North,11,0.0,0.0,96,0.00,,,0.00,0,Wunderground v.1.15,2013-08-10 10:48:00,
2013-08-10 05:49:00,55.1,54.0,30.09,North,11,0.0,0.0,96,0.00,,,0.00,0,Wunderground v.1.15,2013-08-10 10:49:00,
2013-08-10 05:53:00,55.0,53.9,30.09,North,11,0.0,0.0,96,0.00,,,0.00,0,Wunderground v.1.15,2013-08-10 10:53:00,
2013-08-10 05:54:00,54.9,53.8,30.09,North,11,0.0,0.0,96,0.00,,,0.00,0,Wunderground v.1.15,2013-08-10 10:54:00,
2013-08-10 05:55:00,54.9,53.8,30.09,North,11,0.0,0.0,96,0.00,,,0.00,0,Wunderground v.1.15,2013-08-10 10:55:00,
2013-08-10 05:58:00,55.1,54.0,30.09,North,11,0.0,0.0,96,0.00,,,0.00,0,Wunderground v.1.15,2013-08-10 10:58:00,
2013-08-10 05:59:00,55.1,54.0,30.09,North,11,0.0,0.0,96,0.00,,,0.00,0,Wunderground v.1.15,2013-08-10 10:59:00,
2013-08-10 06:00:00,55.1,54.0,30.09,North,11,0.0,0.0,96,0.00,,,0.00,0,Wunderground v.1.15,2013-08-10 11:00:00,
2013-08-10 06:01:00,55.1,54.0,30.09,North,11,0.0,0.0,96,0.00,,,0.00,0,Wunderground v.1.15,2013-08-10 11:01:00,
2013-08-10 06:03:00,55.0,53.9,30.09,North,11,0.0,0.0,96,0.00,,,0.00,0,Wunderground v.1.15,2013-08-10 11:03:00,
2013-08-10 06:04:00,54.9,53.8,30.09,North,11,0.0,0.0,96,0.00,,,0.00,0,Wunderground v.1.15,2013-08-10 11:04:00,
2013-08-10 06:06:00,54.9,53.8,30.09,North,11,0.0,0.0,96,0.00,,,0.00,0,Wunderground v.1.15,2013-08-10 11:06:00,
2013-08-10 06:07:00,54.9,53.8,30.09,North,11,0.0,0.0,96,0.00,,,0.00,0,Wunderground v.1.15,2013-08-10 11:07:00,
2013-08-10 06:09:00,54.9,53.8,30.09,North,11,0.0,0.0,96,0.00,,,0.00,0,Wunderground v.1.15,2013-08-10 11:09:00,
2013-08-10 06:10:00,55.0,53.9,30.09,North,11,0.0,0.0,96,0.00,,,0.00,0,Wunderground v.1.15,2013-08-10 11:10:00,
2013-08-10 06:11:00,55.1,54.0,30.09,North,11,0.0,0.0,96,0.00,,,0.00,0,Wunderground v.1.15,2013-08-10 11:11:00,
2013-08-10 06:12:00,55.2,54.1,30.09,North,11,0.0,0.0,96,0.00,,,0.00,0,Wunderground v.1.15,2013-08-10 11:12:00,
2013-08-10 06:13:00,55.2,54.1,30.09,North,11,0.0,0.0,96,0.00,,,0.00,0,Wunderground v.1.15,2013-08-10 11:13:00,
2013-08-10 06:15:00,55.0,53.6,30.09,North,11,0.0,0.0,95,0.00,,,0.00,0,Wunderground v.1.15,2013-08-10 11:15:00,
2013-08-10 06:16:00,54.8,53.4,30.09,North,11,0.0,0.0,95,0.00,,,0.00,0,Wunderground v.1.15,2013-08-10 11:16:00,
2013-08-10 06:17:00,54.7,53.3,30.09,North,11,0.0,0.0,95,0.00,,,0.00,0,Wunderground v.1.15,2013-08-10 11:17:00,
2013-08-10 06:19:00,54.5,53.1,30.09,North,11,0.0,0.0,95,0.00,,,0.00,5,Wunderground v.1.15,2013-08-10 11:19:00,
2013-08-10 06:20:00,54.5,53.1,30.09,North,11,0.0,0.0,95,0.00,,,0.00,5,Wunderground v.1.15,2013-08-10 11:20:00,
2013-08-10 06:21:00,54.5,53.4,30.09,North,11,0.0,0.0,96,0.00,,,0.00,5,Wunderground v.1.15,2013-08-10 11:21:00,
2013-08-10 06:22:00,54.6,53.5,30.09,North,11,0.0,0.0,96,0.00,,,0.00,7,Wunderground v.1.15,2013-08-10 11:22:00,
2013-08-10 06:23:00,54.6,53.5,30.09,North,11,0.0,0.0,96,0.00,,,0.00,7,Wunderground v.1.15,2013-08-10 11:23:00,
2013-08-10 06:25:00,55.0,53.9,30.09,North,11,0.0,0.0,96,0.00,,,0.00,7,Wunderground v.1.15,2013-08-10 11:25:00,
2013-08-10 06:26:00,55.1,54.3,30.09,North,11,0.0,0.0,97,0.00,,,0.00,9,Wunderground v.1.15,2013-08-10 11:26:00,
2013-08-10 06:27:00,55.2,54.4,30.10,North,11,0.0,0.0,97,0.00,,,0.00,9,Wunderground v.1.15,2013-08-10 11:27:00,
2013-08-10 06:28:00,55.2,54.1,30.10,North,11,0.0,0.0,96,0.00,,,0.00,9,Wunderground v.1.15,2013-08-10 11:28:00,
2013-08-10 06:30:00,55.1,54.0,30.10,North,11,0.0,0.0,96,0.00,,,0.00,11,Wunderground v.1.15,2013-08-10 11:30:00,
2013-08-10 06:32:00,55.1,54.0,30.10,North,11,0.0,0.0,96,0.00,,,0.00,12,Wunderground v.1.15,2013-08-10 11:32:00,
2013-08-10 06:33:00,54.7,53.3,30.10,North,11,0.0,0.0,95,0.00,,,0.00,12,Wunderground v.1.15,2013-08-10 11:33:00,
2013-08-10 06:34:00,54.5,53.1,30.10,North,11,0.0,0.0,95,0.00,,,0.00,12,Wunderground v.1.15,2013-08-10 11:34:00,
2013-08-10 06:36:00,54.1,52.7,30.09,North,11,0.0,0.0,95,0.00,,,0.00,14,Wunderground v.1.15,2013-08-10 11:36:00,
2013-08-10 06:38:00,54.1,52.7,30.10,North,11,0.0,0.0,95,0.00,,,0.00,16,Wunderground v.1.15,2013-08-10 11:38:00,
2013-08-10 06:39:00,54.2,53.1,30.10,North,11,0.0,0.0,96,0.00,,,0.00,16,Wunderground v.1.15,2013-08-10 11:39:00,
2013-08-10 06:40:00,54.4,53.3,30.09,North,11,0.0,0.0,96,0.00,,,0.00,18,Wunderground v.1.15,2013-08-10 11:40:00,
2013-08-10 06:42:00,54.6,53.5,30.10,North,11,0.0,0.0,96,0.00,,,0.00,19,Wunderground v.1.15,2013-08-10 11:42:00,
2013-08-10 06:44:00,54.8,53.7,30.10,North,11,0.0,0.0,96,0.00,,,0.00,23,Wunderground v.1.15,2013-08-10 11:44:00,
2013-08-10 06:46:00,55.0,53.9,30.10,North,11,0.0,0.0,96,0.00,,,0.00,25,Wunderground v.1.15,2013-08-10 11:46:00,
2013-08-10 06:48:00,55.3,54.2,30.10,North,11,0.0,0.0,96,0.00,,,0.00,28,Wunderground v.1.15,2013-08-10 11:48:00,
2013-08-10 06:49:00,55.3,54.2,30.10,North,11,0.0,0.0,96,0.00,,,0.00,28,Wunderground v.1.15,2013-08-10 11:49:00,
2013-08-10 06:51:00,55.0,53.9,30.10,North,11,0.0,0.0,96,0.00,,,0.00,32,Wunderground v.1.15,2013-08-10 11:51:00,
2013-08-10 06:52:00,55.0,53.9,30.10,North,11,0.0,0.0,96,0.00,,,0.00,32,Wunderground v.1.15,2013-08-10 11:52:00,
2013-08-10 06:54:00,55.1,54.0,30.10,North,11,0.0,0.0,96,0.00,,,0.00,28,Wunderground v.1.15,2013-08-10 11:54:00,
2013-08-10 06:55:00,55.1,54.0,30.10,North,11,0.0,0.0,96,0.00,,,0.00,28,Wunderground v.1.15,2013-08-10 11:55:00,
2013-08-10 06:56:00,55.3,54.2,30.10,North,11,0.0,0.0,96,0.00,,,0.00,33,Wunderground v.1.15,2013-08-10 11:56:00,
2013-08-10 06:57:00,55.4,54.3,30.10,North,11,0.0,0.0,96,0.00,,,0.00,33,Wunderground v.1.15,2013-08-10 11:57:00,
2013-08-10 07:01:00,55.9,55.1,30.10,North,11,0.0,0.0,97,0.00,,,0.00,37,Wunderground v.1.15,2013-08-10 12:01:00,
2013-08-10 07:03:00,56.1,55.3,30.10,North,11,0.0,0.0,97,0.00,,,0.00,44,Wunderground v.1.15,2013-08-10 12:03:00,
2013-08-10 07:06:00,56.7,55.9,30.10,North,11,0.0,0.0,97,0.00,,,0.00,63,Wunderground v.1.15,2013-08-10 12:06:00,
2013-08-10 07:08:00,57.0,56.2,30.10,North,11,0.0,0.0,97,0.00,,,0.00,67,Wunderground v.1.15,2013-08-10 12:08:00,
2013-08-10 07:09:00,57.1,56.3,30.10,North,11,0.0,0.0,97,0.00,,,0.00,69,Wunderground v.1.15,2013-08-10 12:09:00,
2013-08-10 07:13:00,57.7,56.9,30.10,North,10,0.0,0.0,97,0.00,,,0.00,81,Wunderground v.1.15,2013-08-10 12:13:00,
2013-08-10 07:14:00,57.7,56.9,30.10,North,11,0.0,0.0,97,0.00,,,0.00,81,Wunderground v.1.15,2013-08-10 12:14:00,
2013-08-10 07:15:00,57.9,57.1,30.10,North,11,0.0,0.0,97,0.00,,,0.00,84,Wunderground v.1.15,2013-08-10 12:15:00,
2013-08-10 07:18:00,58.6,57.8,30.10,North,11,0.0,0.0,97,0.00,,,0.00,93,Wunderground v.1.15,2013-08-10 12:18:00,
2013-08-10 07:19:00,58.6,57.8,30.10,North,11,0.0,0.0,97,0.00,,,0.00,97,Wunderground v.1.15,2013-08-10 12:19:00,
2013-08-10 07:20:00,58.7,57.9,30.10,North,10,0.0,0.0,97,0.00,,,0.00,98,Wunderground v.1.15,2013-08-10 12:20:00,
2013-08-10 07:21:00,58.8,58.0,30.10,North,11,0.0,0.0,97,0.00,,,0.00,100,Wunderground v.1.15,2013-08-10 12:21:00,
2013-08-10 07:23:00,58.9,58.1,30.10,North,11,0.0,0.0,97,0.00,,,0.00,107,Wunderground v.1.15,2013-08-10 12:23:00,
2013-08-10 07:25:00,58.9,58.1,30.10,North,11,0.0,0.0,97,0.00,,,0.00,113,Wunderground v.1.15,2013-08-10 12:25:00,
2013-08-10 07:27:00,59.3,58.4,30.10,North,11,0.0,0.0,97,0.00,,,0.00,118,Wunderground v.1.15,2013-08-10 12:27:00,
2013-08-10 07:29:00,59.8,58.9,30.10,North,10,0.0,0.0,97,0.00,,,0.00,125,Wunderground v.1.15,2013-08-10 12:29:00,
2013-08-10 07:30:00,59.9,59.0,30.10,North,11,0.0,0.0,97,0.00,,,0.00,127,Wunderground v.1.15,2013-08-10 12:30:00,
2013-08-10 07:31:00,60.0,59.1,30.10,North,11,0.0,0.0,97,0.00,,,0.00,130,Wunderground v.1.15,2013-08-10 12:31:00,
2013-08-10 07:32:00,60.0,59.1,30.10,North,11,0.0,0.0,97,0.00,,,0.00,132,Wunderground v.1.15,2013-08-10 12:32:00,
2013-08-10 07:33:00,60.2,59.1,30.10,North,11,0.0,0.0,96,0.00,,,0.00,135,Wunderground v.1.15,2013-08-10 12:33:00,
2013-08-10 07:35:00,60.4,59.3,30.10,North,11,0.0,0.0,96,0.00,,,0.00,142,Wunderground v.1.15,2013-08-10 12:35:00,
2013-08-10 07:36:00,60.4,59.3,30.10,North,11,0.0,0.0,96,0.00,,,0.00,146,Wunderground v.1.15,2013-08-10 12:36:00,
2013-08-10 07:37:00,60.5,59.4,30.10,North,11,0.0,0.0,96,0.00,,,0.00,149,Wunderground v.1.15,2013-08-10 12:37:00,
2013-08-10 07:38:00,60.6,59.5,30.10,North,11,0.0,0.0,96,0.00,,,0.00,151,Wunderground v.1.15,2013-08-10 12:38:00,
2013-08-10 07:42:00,60.9,59.5,30.10,North,11,0.0,0.0,95,0.00,,,0.00,162,Wunderground v.1.15,2013-08-10 12:42:00,
2013-08-10 07:43:00,61.1,60.0,30.10,North,11,0.0,0.0,96,0.00,,,0.00,167,Wunderground v.1.15,2013-08-10 12:43:00,
2013-08-10 07:44:00,61.3,59.9,30.10,North,11,0.0,0.0,95,0.00,,,0.00,169,Wunderground v.1.15,2013-08-10 12:44:00,
2013-08-10 07:45:00,61.5,60.1,30.10,North,11,0.0,0.0,95,0.00,,,0.00,172,Wunderground v.1.15,2013-08-10 12:45:00,
2013-08-10 07:48:00,61.7,60.0,30.10,North,11,0.0,0.0,94,0.00,,,0.00,178,Wunderground v.1.15,2013-08-10 12:48:00,
2013-08-10 07:49:00,61.9,60.2,30.10,North,11,0.0,0.0,94,0.00,,,0.00,181,Wunderground v.1.15,2013-08-10 12:49:00,
2013-08-10 07:50:00,62.1,60.4,30.10,North,11,0.0,0.0,94,0.00,,,0.00,186,Wunderground v.1.15,2013-08-10 12:50:00,
2013-08-10 07:54:00,62.5,60.4,30.10,North,11,0.0,0.0,93,0.00,,,0.00,195,Wunderground v.1.15,2013-08-10 12:54:00,
2013-08-10 07:55:00,62.6,60.5,30.10,North,11,0.0,0.0,93,0.00,,,0.00,197,Wunderground v.1.15,2013-08-10 12:55:00,
2013-08-10 07:56:00,62.8,60.7,30.10,North,11,0.0,0.0,93,0.00,,,0.00,207,Wunderground v.1.15,2013-08-10 12:56:00,
2013-08-10 08:00:00,63.4,61.0,30.10,North,11,0.0,0.0,92,0.00,,,0.00,216,Wunderground v.1.15,2013-08-10 13:00:00,
2013-08-10 08:02:00,63.5,61.1,30.10,North,11,0.0,0.0,92,0.00,,,0.00,221,Wunderground v.1.15,2013-08-10 13:02:00,
2013-08-10 08:03:00,63.6,60.6,30.10,North,11,0.0,0.0,90,0.00,,,0.00,225,Wunderground v.1.15,2013-08-10 13:03:00,
2013-08-10 08:05:00,63.9,60.6,30.10,North,11,0.0,0.0,89,0.00,,,0.00,232,Wunderground v.1.15,2013-08-10 13:05:00,
2013-08-10 08:06:00,64.0,61.0,30.10,North,10,0.0,0.0,90,0.00,,,0.00,234,Wunderground v.1.15,2013-08-10 13:06:00,
2013-08-10 08:07:00,64.0,60.4,30.10,North,10,0.0,0.0,88,0.00,,,0.00,237,Wunderground v.1.15,2013-08-10 13:07:00,
2013-08-10 08:08:00,64.2,60.6,30.10,North,11,0.0,0.0,88,0.00,,,0.00,239,Wunderground v.1.15,2013-08-10 13:08:00,
2013-08-10 08:12:00,64.6,61.3,30.10,North,11,0.0,0.0,89,0.00,,,0.00,251,Wunderground v.1.15,2013-08-10 13:12:00,
2013-08-10 08:14:00,64.7,61.1,30.10,North,11,0.0,0.0,88,0.00,,,0.00,257,Wunderground v.1.15,2013-08-10 13:14:00,
2013-08-10 08:17:00,64.8,60.8,30.10,North,11,0.0,0.0,87,0.00,,,0.00,267,Wunderground v.1.15,2013-08-10 13:17:00,
2013-08-10 08:18:00,64.8,60.5,30.10,North,11,0.0,0.0,86,0.00,,,0.00,271,Wunderground v.1.15,2013-08-10 13:18:00,
2013-08-10 08:19:00,64.8,60.2,30.10,North,11,0.0,0.0,85,0.00,,,0.00,272,Wunderground v.1.15,2013-08-10 13:19:00,
2013-08-10 08:20:00,65.0,60.7,30.10,North,11,0.0,0.0,86,0.00,,,0.00,276,Wunderground v.1.15,2013-08-10 13:20:00,
2013-08-10 08:22:00,65.1,61.1,30.10,North,11,0.0,0.0,87,0.00,,,0.00,279,Wunderground v.1.15,2013-08-10 13:22:00,
2013-08-10 08:23:00,65.1,60.8,30.10,North,11,0.0,0.0,86,0.00,,,0.00,283,Wunderground v.1.15,2013-08-10 13:23:00,
2013-08-10 08:24:00,65.1,60.8,30.10,North,10,0.0,0.0,86,0.00,,,0.00,288,Wunderground v.1.15,2013-08-10 13:24:00,
2013-08-10 08:25:00,65.3,61.7,30.11,North,11,0.0,0.0,88,0.00,,,0.00,294,Wunderground v.1.15,2013-08-10 13:25:00,
2013-08-10 08:28:00,65.4,61.1,30.10,North,11,0.0,0.0,86,0.00,,,0.00,299,Wunderground v.1.15,2013-08-10 13:28:00,
2013-08-10 08:29:00,65.4,60.8,30.10,North,11,0.0,0.0,85,0.00,,,0.00,301,Wunderground v.1.15,2013-08-10 13:29:00,
2013-08-10 08:30:00,65.4,60.4,30.10,North,11,0.0,0.0,84,0.00,,,0.00,308,Wunderground v.1.15,2013-08-10 13:30:00,
2013-08-10 08:32:00,65.6,60.6,30.10,North,11,0.0,0.0,84,0.00,,,0.00,313,Wunderground v.1.15,2013-08-10 13:32:00,
2013-08-10 08:33:00,65.7,61.1,30.11,North,10,0.0,0.0,85,0.00,,,0.00,316,Wunderground v.1.15,2013-08-10 13:33:00,
2013-08-10 08:35:00,65.9,61.3,30.11,North,11,0.0,0.0,85,0.00,,,0.00,322,Wunderground v.1.15,2013-08-10 13:35:00,
2013-08-10 08:36:00,66.1,61.5,30.11,North,10,0.0,1.0,85,0.00,,,0.00,329,Wunderground v.1.15,2013-08-10 13:36:00,
2013-08-10 08:37:00,66.1,61.1,30.11,North,10,0.0,1.0,84,0.00,,,0.00,329,Wunderground v.1.15,2013-08-10 13:37:00,
2013-08-10 08:38:00,66.1,61.1,30.11,North,9,0.0,1.0,84,0.00,,,0.00,334,Wunderground v.1.15,2013-08-10 13:38:00,
2013-08-10 08:39:00,66.1,61.1,30.11,North,10,0.0,1.0,84,0.00,,,0.00,334,Wunderground v.1.15,2013-08-10 13:39:00,
2013-08-10 08:40:00,66.3,61.3,30.11,North,10,0.0,0.0,84,0.00,,,0.00,339,Wunderground v.1.15,2013-08-10 13:40:00,
2013-08-10 08:42:00,66.4,61.4,30.11,North,10,0.0,0.0,84,0.00,,,0.00,341,Wunderground v.1.15,2013-08-10 13:42:00,
2013-08-10 08:44:00,66.4,60.7,30.11,North,10,2.0,2.0,82,0.00,,,0.00,350,Wunderground v.1.15,2013-08-10 13:44:00,
2013-08-10 08:47:00,66.6,60.9,30.11,WSW,244,2.0,2.0,82,0.00,,,0.00,357,Wunderground v.1.15,2013-08-10 13:47:00,
2013-08-10 08:48:00,66.7,60.7,30.11,WSW,244,0.0,2.0,81,0.00,,,0.00,362,Wunderground v.1.15,2013-08-10 13:48:00,
2013-08-10 08:51:00,66.8,60.4,30.11,SSW,194,0.0,1.0,80,0.00,,,0.00,367,Wunderground v.1.15,2013-08-10 13:51:00,
2013-08-10 08:52:00,66.8,60.1,30.12,South,180,0.0,3.0,79,0.00,,,0.00,374,Wunderground v.1.15,2013-08-10 13:52:00,
2013-08-10 08:53:00,66.9,60.2,30.12,South,182,0.0,3.0,79,0.00,,,0.00,374,Wunderground v.1.15,2013-08-10 13:53:00,
2013-08-10 08:54:00,67.0,60.3,30.12,South,182,0.0,3.0,79,0.00,,,0.00,380,Wunderground v.1.15,2013-08-10 13:54:00,
2013-08-10 08:56:00,67.0,59.5,30.12,South,180,0.0,3.0,77,0.00,,,0.00,385,Wunderground v.1.15,2013-08-10 13:56:00,
2013-08-10 08:57:00,67.1,59.6,30.12,South,174,0.0,3.0,77,0.00,,,0.00,390,Wunderground v.1.15,2013-08-10 13:57:00,
2013-08-10 08:59:00,67.4,59.9,30.12,South,171,0.0,3.0,77,0.00,,,0.00,394,Wunderground v.1.15,2013-08-10 13:59:00,
2013-08-10 09:00:00,67.6,60.1,30.12,South,171,0.0,0.0,77,0.00,,,0.00,397,Wunderground v.1.15,2013-08-10 14:00:00,
2013-08-10 09:01:00,67.6,60.1,30.12,South,171,0.0,0.0,77,0.00,,,0.00,399,Wunderground v.1.15,2013-08-10 14:01:00,
2013-08-10 09:03:00,67.9,60.4,30.12,South,173,1.0,1.0,77,0.00,,,0.00,406,Wunderground v.1.15,2013-08-10 14:03:00,
2013-08-10 09:05:00,67.8,60.0,30.12,South,173,0.0,1.0,76,0.00,,,0.00,413,Wunderground v.1.15,2013-08-10 14:05:00,
2013-08-10 09:07:00,67.7,59.9,30.12,South,173,0.0,1.0,76,0.00,,,0.00,417,Wunderground v.1.15,2013-08-10 14:07:00,
2013-08-10 09:08:00,67.8,60.0,30.12,South,173,0.0,1.0,76,0.00,,,0.00,424,Wunderground v.1.15,2013-08-10 14:08:00,
2013-08-10 09:09:00,67.9,60.4,30.12,South,177,2.0,2.0,77,0.00,,,0.00,424,Wunderground v.1.15,2013-08-10 14:09:00,
2013-08-10 09:10:00,68.1,60.2,30.12,South,173,0.0,0.0,76,0.00,,,0.00,427,Wunderground v.1.15,2013-08-10 14:10:00,
2013-08-10 09:11:00,68.1,59.9,30.12,South,173,0.0,0.0,75,0.00,,,0.00,427,Wunderground v.1.15,2013-08-10 14:11:00,
2013-08-10 09:12:00,68.1,60.2,30.12,SSE,167,0.0,0.0,76,0.00,,,0.00,434,Wunderground v.1.15,2013-08-10 14:12:00,
2013-08-10 09:14:00,68.6,60.7,30.12,South,175,0.0,0.0,76,0.00,,,0.00,441,Wunderground v.1.15,2013-08-10 14:14:00,
2013-08-10 09:15:00,68.6,60.0,30.12,South,170,0.0,0.0,74,0.00,,,0.00,443,Wunderground v.1.15,2013-08-10 14:15:00,
2013-08-10 09:18:00,69.1,61.2,30.12,South,175,0.0,0.0,76,0.00,,,0.00,450,Wunderground v.1.15,2013-08-10 14:18:00,
2013-08-10 09:20:00,69.4,61.1,30.12,South,188,0.0,0.0,75,0.00,,,0.00,455,Wunderground v.1.15,2013-08-10 14:20:00,
2013-08-10 09:22:00,69.6,60.9,30.12,South,190,0.0,1.0,74,0.00,,,0.00,464,Wunderground v.1.15,2013-08-10 14:22:00,
2013-08-10 09:23:00,69.6,60.9,30.12,SSW,193,1.0,1.0,74,0.00,,,0.00,466,Wunderground v.1.15,2013-08-10 14:23:00,
2013-08-10 09:24:00,69.7,60.7,30.12,SSW,193,0.0,1.0,73,0.00,,,0.00,471,Wunderground v.1.15,2013-08-10 14:24:00,
2013-08-10 09:27:00,69.8,60.0,30.12,SW,215,3.0,3.0,71,0.00,,,0.00,475,Wunderground v.1.15,2013-08-10 14:27:00,
2013-08-10 09:28:00,69.7,60.3,30.12,SSW,199,0.0,3.0,72,0.00,,,0.00,480,Wunderground v.1.15,2013-08-10 14:28:00,
2013-08-10 09:30:00,69.8,60.4,30.12,SSW,198,0.0,3.0,72,0.00,,,0.00,485,Wunderground v.1.15,2013-08-10 14:30:00,
2013-08-10 09:32:00,70.1,59.5,30.12,SSW,199,0.0,1.0,69,0.00,,,0.00,490,Wunderground v.1.15,2013-08-10 14:32:00,
2013-08-10 09:33:00,70.0,59.4,30.12,SSW,199,1.0,1.0,69,0.00,,,0.00,494,Wunderground v.1.15,2013-08-10 14:33:00,
2013-08-10 09:34:00,70.2,60.4,30.12,SSW,192,0.0,1.0,71,0.00,,,0.00,499,Wunderground v.1.15,2013-08-10 14:34:00,
2013-08-10 09:35:00,70.3,59.6,30.12,South,184,1.0,2.0,69,0.00,,,0.00,503,Wunderground v.1.15,2013-08-10 14:35:00,
2013-08-10 09:36:00,70.4,59.7,30.12,SSE,152,0.0,2.0,69,0.00,,,0.00,503,Wunderground v.1.15,2013-08-10 14:36:00,
2013-08-10 09:38:00,70.7,60.0,30.12,South,179,3.0,3.0,69,0.00,,,0.00,512,Wunderground v.1.15,2013-08-10 14:38:00,
2013-08-10 09:39:00,70.9,59.4,30.12,South,182,0.0,4.0,67,0.00,,,0.00,512,Wunderground v.1.15,2013-08-10 14:39:00,
2013-08-10 09:41:00,71.0,59.9,30.12,SSE,161,1.0,1.0,68,0.00,,,0.00,519,Wunderground v.1.15,2013-08-10 14:41:00,
2013-08-10 09:42:00,71.0,59.9,30.12,SE,144,3.0,3.0,68,0.00,,,0.00,522,Wunderground v.1.15,2013-08-10 14:42:00,
2013-08-10 09:43:00,71.1,59.6,30.12,SE,145,3.0,5.0,67,0.00,,,0.00,526,Wunderground v.1.15,2013-08-10 14:43:00,
2013-08-10 09:45:00,71.0,59.5,30.12,South,171,1.0,5.0,67,0.00,,,0.00,531,Wunderground v.1.15,2013-08-10 14:45:00,
2013-08-10 09:47:00,71.0,59.1,30.12,SSE,151,2.0,5.0,66,0.00,,,0.00,534,Wunderground v.1.15,2013-08-10 14:47:00,
2013-08-10 09:49:00,70.8,59.3,30.12,SSE,162,1.0,5.0,67,0.00,,,0.00,540,Wunderground v.1.15,2013-08-10 14:49:00,
2013-08-10 09:50:00,70.9,59.8,30.12,SE,143,1.0,2.0,68,0.00,,,0.00,545,Wunderground v.1.15,2013-08-10 14:50:00,
2013-08-10 09:52:00,71.0,59.9,30.12,SE,138,5.0,5.0,68,0.00,,,0.00,548,Wunderground v.1.15,2013-08-10 14:52:00,
2013-08-10 09:54:00,71.3,59.8,30.12,SE,144,0.0,6.0,67,0.00,,,0.00,554,Wunderground v.1.15,2013-08-10 14:54:00,
2013-08-10 09:55:00,71.4,59.4,30.12,SSE,155,4.0,6.0,66,0.00,,,0.00,554,Wunderground v.1.15,2013-08-10 14:55:00,
2013-08-10 09:56:00,71.5,59.1,30.12,SSE,156,4.0,6.0,65,0.00,,,0.00,561,Wunderground v.1.15,2013-08-10 14:56:00,
2013-08-10 09:57:00,71.5,58.7,30.12,SSE,152,0.0,6.0,64,0.00,,,0.00,561,Wunderground v.1.15,2013-08-10 14:57:00,
2013-08-10 09:59:00,71.7,60.2,30.12,South,169,3.0,6.0,67,0.00,,,0.00,571,Wunderground v.1.15,2013-08-10 14:59:00,
2013-08-10 10:00:00,71.8,59.4,30.12,South,169,2.0,2.0,65,0.00,,,0.00,571,Wunderground v.1.15,2013-08-10 15:00:00,
2013-08-10 10:01:00,72.1,59.7,30.11,South,173,1.0,3.0,65,0.00,,,0.00,575,Wunderground v.1.15,2013-08-10 15:01:00,
2013-08-10 10:06:00,72.2,59.3,30.12,South,177,1.0,4.0,64,0.00,,,0.00,589,Wunderground v.1.15,2013-08-10 15:06:00,
2013-08-10 10:07:00,72.2,60.2,30.12,SE,139,1.0,4.0,66,0.00,,,0.00,592,Wunderground v.1.15,2013-08-10 15:07:00,
2013-08-10 10:08:00,72.3,60.3,30.12,SE,139,1.0,4.0,66,0.00,,,0.00,596,Wunderground v.1.15,2013-08-10 15:08:00,
2013-08-10 10:11:00,72.6,60.2,30.12,SE,140,2.0,5.0,65,0.00,,,0.00,603,Wunderground v.1.15,2013-08-10 15:11:00,
2013-08-10 10:13:00,72.8,59.9,30.12,East,96,3.0,5.0,64,0.00,,,0.00,608,Wunderground v.1.15,2013-08-10 15:13:00,
2013-08-10 10:14:00,73.0,60.1,30.12,SE,134,3.0,5.0,64,0.00,,,0.00,613,Wunderground v.1.15,2013-08-10 15:14:00,
2013-08-10 10:16:00,73.5,59.7,30.12,East,101,6.0,6.0,62,0.00,,,0.00,617,Wunderground v.1.15,2013-08-10 15:16:00,
2013-08-10 10:17:00,73.6,59.3,30.12,East,97,2.0,6.0,61,0.00,,,0.00,619,Wunderground v.1.15,2013-08-10 15:17:00,
2013-08-10 10:20:00,73.1,57.0,30.11,ESE,104,2.0,3.0,57,0.00,,,0.00,626,Wunderground v.1.15,2013-08-10 15:20:00,
2013-08-10 10:21:00,73.0,58.3,30.11,East,96,6.0,6.0,60,0.00,,,0.00,629,Wunderground v.1.15,2013-08-10 15:21:00,
2013-08-10 10:22:00,73.0,58.3,30.11,East,98,6.0,6.0,60,0.00,,,0.00,629,Wunderground v.1.15,2013-08-10 15:22:00,
2013-08-10 10:27:00,73.6,59.8,30.11,East,96,2.0,7.0,62,0.00,,,0.00,643,Wunderground v.1.15,2013-08-10 15:27:00,
2013-08-10 10:28:00,73.7,59.4,30.11,SE,128,1.0,7.0,61,0.00,,,0.00,643,Wunderground v.1.15,2013-08-10 15:28:00,
2013-08-10 10:31:00,73.9,60.5,30.11,SSE,154,3.0,4.0,63,0.00,,,0.00,650,Wunderground v.1.15,2013-08-10 15:31:00,
2013-08-10 10:33:00,73.8,60.0,30.12,SSE,163,2.0,4.0,62,0.00,,,0.00,656,Wunderground v.1.15,2013-08-10 15:33:00,
2013-08-10 10:34:00,73.8,60.0,30.12,SSE,153,1.0,4.0,62,0.00,,,0.00,657,Wunderground v.1.15,2013-08-10 15:34:00,
2013-08-10 10:36:00,74.1,59.8,30.11,SSE,149,1.0,4.0,61,0.00,,,0.00,663,Wunderground v.1.15,2013-08-10 15:36:00,
2013-08-10 10:37:00,74.0,59.7,30.12,ESE,103,2.0,4.0,61,0.00,,,0.00,666,Wunderground v.1.15,2013-08-10 15:37:00,
2013-08-10 10:39:00,74.0,60.2,30.11,SE,132,1.0,4.0,62,0.00,,,0.00,671,Wunderground v.1.15,2013-08-10 15:39:00,
2013-08-10 10:41:00,74.0,60.6,30.11,SSE,153,2.0,3.0,63,0.00,,,0.00,675,Wunderground v.1.15,2013-08-10 15:41:00,
2013-08-10 10:42:00,74.2,60.8,30.12,SSE,156,2.0,3.0,63,0.00,,,0.00,675,Wunderground v.1.15,2013-08-10 15:42:00,
2013-08-10 10:44:00,74.3,60.4,30.12,SSE,165,1.0,3.0,62,0.00,,,0.00,682,Wunderground v.1.15,2013-08-10 15:44:00,
2013-08-10 10:47:00,74.6,60.7,30.12,SE,131,3.0,3.0,62,0.00,,,0.00,687,Wunderground v.1.15,2013-08-10 15:47:00,
2013-08-10 10:48:00,75.0,60.6,30.12,ESE,113,3.0,3.0,61,0.00,,,0.00,691,Wunderground v.1.15,2013-08-10 15:48:00,
2013-08-10 10:49:00,75.0,60.6,30.12,ESE,114,1.0,3.0,61,0.00,,,0.00,691,Wunderground v.1.15,2013-08-10 15:49:00,
2013-08-10 10:50:00,75.0,60.2,30.12,SSW,198,2.0,3.0,60,0.00,,,0.00,691,Wunderground v.1.15,2013-08-10 15:50:00,
2013-08-10 10:52:00,75.0,60.6,30.11,SE,145,1.0,2.0,61,0.00,,,0.00,701,Wunderground v.1.15,2013-08-10 15:52:00,
2013-08-10 10:53:00,75.2,60.8,30.12,SSE,163,2.0,2.0,61,0.00,,,0.00,701,Wunderground v.1.15,2013-08-10 15:53:00,
2013-08-10 10:54:00,75.3,59.5,30.12,South,169,2.0,4.0,58,0.00,,,0.00,705,Wunderground v.1.15,2013-08-10 15:54:00,
2013-08-10 10:55:00,75.2,60.4,30.12,SSE,156,1.0,4.0,60,0.00,,,0.00,705,Wunderground v.1.15,2013-08-10 15:55:00,
2013-08-10 10:59:00,75.3,60.5,30.12,SSE,166,3.0,4.0,60,0.00,,,0.00,715,Wunderground v.1.15,2013-08-10 15:59:00,
2013-08-10 11:00:00,75.4,60.5,30.12,South,178,1.0,2.0,60,0.00,,,0.00,715,Wunderground v.1.15,2013-08-10 16:00:00,
2013-08-10 11:01:00,75.4,60.5,30.12,South,178,0.0,2.0,60,0.00,,,0.00,715,Wunderground v.1.15,2013-08-10 16:01:00,
2013-08-10 11:02:00,75.5,60.6,30.12,SSE,149,4.0,4.0,60,0.00,,,0.00,721,Wunderground v.1.15,2013-08-10 16:02:00,
2013-08-10 11:04:00,75.5,60.6,30.12,SSE,166,2.0,4.0,60,0.00,,,0.00,728,Wunderground v.1.15,2013-08-10 16:04:00,
2013-08-10 11:05:00,75.6,59.8,30.12,South,171,0.0,4.0,58,0.00,,,0.00,728,Wunderground v.1.15,2013-08-10 16:05:00,
2013-08-10 11:06:00,75.6,59.8,30.12,South,175,0.0,4.0,58,0.00,,,0.00,728,Wunderground v.1.15,2013-08-10 16:06:00,
2013-08-10 11:09:00,75.3,59.0,30.12,ESE,116,1.0,4.0,57,0.00,,,0.00,735,Wunderground v.1.15,2013-08-10 16:09:00,
2013-08-10 11:10:00,75.3,59.0,30.12,SE,125,3.0,4.0,57,0.00,,,0.00,737,Wunderground v.1.15,2013-08-10 16:10:00,
2013-08-10 11:12:00,75.1,57.8,30.12,ESE,121,0.0,2.0,55,0.00,,,0.00,740,Wunderground v.1.15,2013-08-10 16:12:00,
2013-08-10 11:14:00,75.3,59.0,30.12,ENE,76,3.0,6.0,57,0.00,,,0.00,744,Wunderground v.1.15,2013-08-10 16:14:00,
2013-08-10 11:15:00,75.4,59.6,30.12,ENE,76,1.0,6.0,58,0.00,,,0.00,745,Wunderground v.1.15,2013-08-10 16:15:00,
2013-08-10 11:17:00,75.5,59.7,30.12,ENE,76,1.0,6.0,58,0.00,,,0.00,749,Wunderground v.1.15,2013-08-10 16:17:00,
2013-08-10 11:18:00,75.6,59.3,30.12,East,80,1.0,6.0,57,0.00,,,0.00,749,Wunderground v.1.15,2013-08-10 16:18:00,
2013-08-10 11:20:00,75.9,59.6,30.12,East,82,2.0,2.0,57,0.00,,,0.00,754,Wunderground v.1.15,2013-08-10 16:20:00,
2013-08-10 11:23:00,76.0,60.6,30.12,ESE,117,2.0,3.0,59,0.00,,,0.00,759,Wunderground v.1.15,2013-08-10 16:23:00,
2013-08-10 11:24:00,75.9,60.1,30.12,SE,128,2.0,3.0,58,0.00,,,0.00,761,Wunderground v.1.15,2013-08-10 16:24:00,
2013-08-10 11:25:00,75.5,60.2,30.12,SE,124,0.0,3.0,59,0.00,,,0.00,765,Wunderground v.1.15,2013-08-10 16:25:00,
2013-08-10 11:26:00,75.5,60.2,30.12,SE,124,0.0,3.0,59,0.00,,,0.00,766,Wunderground v.1.15,2013-08-10 16:26:00,
2013-08-10 11:29:00,75.6,59.8,30.12,SE,145,0.0,3.0,58,0.00,,,0.00,772,Wunderground v.1.15,2013-08-10 16:29:00,
2013-08-10 11:30:00,75.4,61.0,30.12,SE,144,0.0,1.0,61,0.00,,,0.00,773,Wunderground v.1.15,2013-08-10 16:30:00,
2013-08-10 11:31:00,75.4,60.5,30.12,SSW,196,2.0,2.0,60,0.00,,,0.00,775,Wunderground v.1.15,2013-08-10 16:31:00,
2013-08-10 11:33:00,75.8,60.9,30.12,SSW,196,1.0,3.0,60,0.00,,,0.00,777,Wunderground v.1.15,2013-08-10 16:33:00,
2013-08-10 11:35:00,76.2,60.3,30.12,SW,233,0.0,5.0,58,0.00,,,0.00,780,Wunderground v.1.15,2013-08-10 16:35:00,
2013-08-10 11:36:00,76.2,60.8,30.12,WSW,241,0.0,5.0,59,0.00,,,0.00,784,Wunderground v.1.15,2013-08-10 16:36:00,
2013-08-10 11:38:00,76.0,60.6,30.12,SW,214,2.0,5.0,59,0.00,,,0.00,786,Wunderground v.1.15,2013-08-10 16:38:00,
2013-08-10 11:41:00,76.3,60.4,30.12,SW,225,0.0,1.0,58,0.00,,,0.00,788,Wunderground v.1.15,2013-08-10 16:41:00,
2013-08-10 11:42:00,76.4,61.5,30.12,SSW,211,1.0,2.0,60,0.00,,,0.00,793,Wunderground v.1.15,2013-08-10 16:42:00,
2013-08-10 11:44:00,77.0,62.0,30.12,SW,217,1.0,4.0,60,0.00,,,0.00,795,Wunderground v.1.15,2013-08-10 16:44:00,
2013-08-10 11:47:00,77.4,61.0,30.12,SW,225,2.0,7.0,57,0.00,,,0.00,802,Wunderground v.1.15,2013-08-10 16:47:00,
2013-08-10 11:49:00,77.0,60.1,30.12,SW,234,1.0,7.0,56,0.00,,,0.00,802,Wunderground v.1.15,2013-08-10 16:49:00,
2013-08-10 11:51:00,76.7,60.3,30.12,South,171,0.0,2.0,57,0.00,,,0.00,805,Wunderground v.1.15,2013-08-10 16:51:00,
2013-08-10 11:53:00,76.6,61.2,30.12,SSW,213,0.0,2.0,59,0.00,,,0.00,803,Wunderground v.1.15,2013-08-10 16:53:00,
2013-08-10 11:55:00,77.3,60.9,30.12,SSW,213,0.0,3.0,57,0.00,,,0.00,810,Wunderground v.1.15,2013-08-10 16:55:00,
2013-08-10 11:56:00,77.4,61.9,30.12,SSE,164,0.0,4.0,59,0.00,,,0.00,812,Wunderground v.1.15,2013-08-10 16:56:00,
2013-08-10 11:57:00,77.5,61.1,30.12,SSE,165,0.0,4.0,57,0.00,,,0.00,814,Wunderground v.1.15,2013-08-10 16:57:00,
2013-08-10 11:59:00,77.5,61.6,30.12,South,178,1.0,4.0,58,0.00,,,0.00,819,Wunderground v.1.15,2013-08-10 16:59:00,
2013-08-10 12:00:00,77.9,61.4,30.12,SSW,193,3.0,3.0,57,0.00,,,0.00,817,Wunderground v.1.15,2013-08-10 17:00:00,
2013-08-10 12:02:00,78.0,62.0,30.12,SSW,193,5.0,5.0,58,0.00,,,0.00,819,Wunderground v.1.15,2013-08-10 17:02:00,
2013-08-10 12:04:00,77.7,61.3,30.12,SSW,198,3.0,5.0,57,0.00,,,0.00,823,Wunderground v.1.15,2013-08-10 17:04:00,
2013-08-10 12:05:00,77.3,60.9,30.12,SSE,153,1.0,5.0,57,0.00,,,0.00,826,Wunderground v.1.15,2013-08-10 17:05:00,
2013-08-10 12:09:00,77.0,61.1,30.12,SSW,192,0.0,5.0,58,0.00,,,0.00,828,Wunderground v.1.15,2013-08-10 17:09:00,
2013-08-10 12:10:00,77.1,60.7,30.12,SSW,195,0.0,2.0,57,0.00,,,0.00,830,Wunderground v.1.15,2013-08-10 17:10:00,
2013-08-10 12:13:00,78.0,62.5,30.11,South,180,3.0,4.0,59,0.00,,,0.00,833,Wunderground v.1.15,2013-08-10 17:13:00,
2013-08-10 12:14:00,78.2,62.7,30.11,South,174,3.0,4.0,59,0.00,,,0.00,833,Wunderground v.1.15,2013-08-10 17:14:00,
2013-08-10 12:15:00,78.4,61.4,30.11,SSW,197,0.0,4.0,56,0.00,,,0.00,828,Wunderground v.1.15,2013-08-10 17:15:00,
2013-08-10 12:19:00,78.4,62.9,30.11,South,181,3.0,4.0,59,0.00,,,0.00,840,Wunderground v.1.15,2013-08-10 17:19:00,
2013-08-10 12:20:00,78.5,62.5,30.11,South,173,1.0,2.0,58,0.00,,,0.00,842,Wunderground v.1.15,2013-08-10 17:20:00,
2013-08-10 12:21:00,78.6,61.6,30.11,SSE,167,3.0,3.0,56,0.00,,,0.00,844,Wunderground v.1.15,2013-08-10 17:21:00,
2013-08-10 12:24:00,78.4,60.9,30.11,SSW,198,3.0,3.0,55,0.00,,,0.00,846,Wunderground v.1.15,2013-08-10 17:24:00,
2013-08-10 12:25:00,78.6,61.6,30.11,SW,219,4.0,4.0,56,0.00,,,0.00,847,Wunderground v.1.15,2013-08-10 17:25:00,
2013-08-10 12:26:00,78.7,61.7,30.11,SSW,203,2.0,4.0,56,0.00,,,0.00,847,Wunderground v.1.15,2013-08-10 17:26:00,
2013-08-10 12:27:00,79.0,61.5,30.11,WSW,250,2.0,6.0,55,0.00,,,0.00,851,Wunderground v.1.15,2013-08-10 17:27:00,
2013-08-10 12:29:00,79.0,60.4,30.11,WSW,253,0.0,6.0,53,0.00,,,0.00,851,Wunderground v.1.15,2013-08-10 17:29:00,
2013-08-10 12:31:00,78.8,60.7,30.11,WSW,242,2.0,4.0,54,0.00,,,0.00,851,Wunderground v.1.15,2013-08-10 17:31:00,
2013-08-10 12:32:00,78.7,61.7,30.11,WSW,246,2.0,4.0,56,0.00,,,0.00,854,Wunderground v.1.15,2013-08-10 17:32:00,
2013-08-10 12:35:00,78.6,61.1,30.11,South,169,2.0,4.0,55,0.00,,,0.00,856,Wunderground v.1.15,2013-08-10 17:35:00,
2013-08-10 12:36:00,78.4,61.9,30.11,SSE,157,2.0,4.0,57,0.00,,,0.00,858,Wunderground v.1.15,2013-08-10 17:36:00,
2013-08-10 12:37:00,78.5,62.5,30.11,South,177,5.0,5.0,58,0.00,,,0.00,858,Wunderground v.1.15,2013-08-10 17:37:00,
2013-08-10 12:38:00,78.5,61.5,30.10,SSE,155,4.0,5.0,56,0.00,,,0.00,858,Wunderground v.1.15,2013-08-10 17:38:00,
2013-08-10 12:40:00,78.4,60.9,30.10,SSE,155,0.0,5.0,55,0.00,,,0.00,863,Wunderground v.1.15,2013-08-10 17:40:00,
2013-08-10 12:41:00,78.6,61.1,30.10,ESE,116,0.0,4.0,55,0.00,,,0.00,861,Wunderground v.1.15,2013-08-10 17:41:00,
2013-08-10 12:43:00,78.5,62.0,30.10,SE,126,1.0,4.0,57,0.00,,,0.00,860,Wunderground v.1.15,2013-08-10 17:43:00,
2013-08-10 12:44:00,78.5,62.0,30.10,SE,126,2.0,4.0,57,0.00,,,0.00,861,Wunderground v.1.15,2013-08-10 17:44:00,
2013-08-10 12:45:00,78.7,62.7,30.10,SSE,164,2.0,4.0,58,0.00,,,0.00,867,Wunderground v.1.15,2013-08-10 17:45:00,
2013-08-10 12:47:00,78.9,62.9,30.10,SSW,206,2.0,4.0,58,0.00,,,0.00,868,Wunderground v.1.15,2013-08-10 17:47:00,
2013-08-10 12:49:00,78.9,61.4,30.10,SW,215,1.0,5.0,55,0.00,,,0.00,872,Wunderground v.1.15,2013-08-10 17:49:00,
2013-08-10 12:50:00,79.1,62.1,30.10,SW,220,2.0,5.0,56,0.00,,,0.00,870,Wunderground v.1.15,2013-08-10 17:50:00,
2013-08-10 12:53:00,79.8,63.2,30.10,West,260,5.0,5.0,57,0.00,,,0.00,888,Wunderground v.1.15,2013-08-10 17:53:00,
2013-08-10 12:54:00,80.0,60.8,30.10,WSW,255,3.0,5.0,52,0.00,,,0.00,886,Wunderground v.1.15,2013-08-10 17:54:00,
2013-08-10 12:56:00,79.8,61.7,30.10,West,278,3.0,5.0,54,0.00,,,0.00,868,Wunderground v.1.15,2013-08-10 17:56:00,
2013-08-10 12:57:00,79.9,61.8,30.10,SW,236,5.0,5.0,54,0.00,,,0.00,868,Wunderground v.1.15,2013-08-10 17:57:00,
2013-08-10 12:58:00,79.9,62.3,30.10,SW,225,4.0,5.0,55,0.00,,,0.00,872,Wunderground v.1.15,2013-08-10 17:58:00,
2013-08-10 13:00:00,79.7,61.1,30.11,SW,233,1.0,4.0,53,0.00,,,0.00,874,Wunderground v.1.15,2013-08-10 18:00:00,
2013-08-10 13:01:00,79.7,62.1,30.11,SW,232,5.0,5.0,55,0.00,,,0.00,877,Wunderground v.1.15,2013-08-10 18:01:00,
2013-08-10 13:04:00,79.5,61.4,30.10,West,271,1.0,6.0,54,0.00,,,0.00,874,Wunderground v.1.15,2013-08-10 18:04:00,
2013-08-10 13:05:00,79.4,59.7,30.10,West,271,0.0,6.0,51,0.00,,,0.00,874,Wunderground v.1.15,2013-08-10 18:05:00,
2013-08-10 13:08:00,79.3,60.7,30.10,West,271,0.0,6.0,53,0.00,,,0.00,872,Wunderground v.1.15,2013-08-10 18:08:00,
2013-08-10 13:10:00,79.2,60.1,30.10,NW,311,1.0,6.0,52,0.00,,,0.00,874,Wunderground v.1.15,2013-08-10 18:10:00,
2013-08-10 13:11:00,79.1,61.0,30.10,SW,231,2.0,3.0,54,0.00,,,0.00,875,Wunderground v.1.15,2013-08-10 18:11:00,
2013-08-10 13:13:00,79.3,61.2,30.10,WSW,257,4.0,6.0,54,0.00,,,0.00,882,Wunderground v.1.15,2013-08-10 18:13:00,
2013-08-10 13:15:00,79.5,61.9,30.10,WSW,241,4.0,6.0,55,0.00,,,0.00,879,Wunderground v.1.15,2013-08-10 18:15:00,
2013-08-10 13:17:00,79.5,61.4,30.10,West,268,3.0,6.0,54,0.00,,,0.00,881,Wunderground v.1.15,2013-08-10 18:17:00,
2013-08-10 13:18:00,79.6,61.0,30.10,West,271,4.0,6.0,53,0.00,,,0.00,881,Wunderground v.1.15,2013-08-10 18:18:00,
2013-08-10 13:21:00,79.7,61.1,30.10,WSW,250,2.0,5.0,53,0.00,,,0.00,879,Wunderground v.1.15,2013-08-10 18:21:00,
2013-08-10 13:22:00,79.8,61.1,30.10,WSW,252,3.0,5.0,53,0.00,,,0.00,879,Wunderground v.1.15,2013-08-10 18:22:00,
2013-08-10 13:23:00,79.8,59.5,30.10,WSW,252,0.0,5.0,50,0.00,,,0.00,881,Wunderground v.1.15,2013-08-10 18:23:00,
2013-08-10 13:24:00,79.6,60.4,30.10,WSW,252,0.0,5.0,52,0.00,,,0.00,882,Wunderground v.1.15,2013-08-10 18:24:00,
2013-08-10 13:26:00,79.8,62.2,30.10,West,280,2.0,5.0,55,0.00,,,0.00,882,Wunderground v.1.15,2013-08-10 18:26:00,
2013-08-10 13:27:00,80.0,60.2,30.10,WNW,286,1.0,5.0,51,0.00,,,0.00,884,Wunderground v.1.15,2013-08-10 18:27:00,
2013-08-10 13:29:00,80.0,61.3,30.10,WNW,296,2.0,5.0,53,0.00,,,0.00,881,Wunderground v.1.15,2013-08-10 18:29:00,
2013-08-10 13:30:00,80.0,60.8,30.10,WNW,302,1.0,2.0,52,0.00,,,0.00,881,Wunderground v.1.15,2013-08-10 18:30:00,
2013-08-10 13:32:00,80.0,60.8,30.10,NW,305,0.0,2.0,52,0.00,,,0.00,881,Wunderground v.1.15,2013-08-10 18:32:00,
2013-08-10 13:33:00,80.0,61.3,30.10,West,279,2.0,2.0,53,0.00,,,0.00,886,Wunderground v.1.15,2013-08-10 18:33:00,
2013-08-10 13:35:00,80.5,61.3,30.10,WNW,293,1.0,3.0,52,0.00,,,0.00,900,Wunderground v.1.15,2013-08-10 18:35:00,
2013-08-10 13:37:00,80.5,61.8,30.10,NW,304,1.0,3.0,53,0.00,,,0.00,909,Wunderground v.1.15,2013-08-10 18:37:00,
2013-08-10 13:38:00,80.7,62.5,30.09,NW,304,1.0,3.0,54,0.00,,,0.00,939,Wunderground v.1.15,2013-08-10 18:38:00,
2013-08-10 13:39:00,80.9,61.6,30.09,NW,308,1.0,3.0,52,0.00,,,0.00,933,Wunderground v.1.15,2013-08-10 18:39:00,
2013-08-10 13:42:00,80.4,60.6,30.09,NW,308,2.0,2.0,51,0.00,,,0.00,933,Wunderground v.1.15,2013-08-10 18:42:00,
2013-08-10 13:43:00,79.9,60.7,30.09,NW,308,0.0,2.0,52,0.00,,,0.00,165,Wunderground v.1.15,2013-08-10 18:43:00,
2013-08-10 13:44:00,79.5,60.3,30.09,NW,308,0.0,2.0,52,0.00,,,0.00,167,Wunderground v.1.15,2013-08-10 18:44:00,
2013-08-10 13:45:00,79.4,60.8,30.09,NW,308,0.0,2.0,53,0.00,,,0.00,167,Wunderground v.1.15,2013-08-10 18:45:00,
2013-08-10 13:46:00,79.0,60.9,30.09,NW,308,0.0,2.0,54,0.00,,,0.00,171,Wunderground v.1.15,2013-08-10 18:46:00,
2013-08-10 13:48:00,78.4,59.9,30.09,NW,308,0.0,2.0,53,0.00,,,0.00,188,Wunderground v.1.15,2013-08-10 18:48:00,
2013-08-10 13:49:00,78.5,61.5,30.09,WSW,251,5.0,5.0,56,0.00,,,0.00,188,Wunderground v.1.15,2013-08-10 18:49:00,
2013-08-10 13:50:00,78.8,62.3,30.09,WSW,253,2.0,3.0,57,0.00,,,0.00,188,Wunderground v.1.15,2013-08-10 18:50:00,
2013-08-10 13:51:00,79.1,62.6,30.09,WSW,244,3.0,3.0,57,0.00,,,0.00,188,Wunderground v.1.15,2013-08-10 18:51:00,
2013-08-10 13:53:00,79.8,62.7,30.09,WSW,255,3.0,5.0,56,0.00,,,0.00,923,Wunderground v.1.15,2013-08-10 18:53:00,
2013-08-10 13:54:00,80.4,64.3,30.09,WSW,252,2.0,5.0,58,0.00,,,0.00,898,Wunderground v.1.15,2013-08-10 18:54:00,
2013-08-10 13:55:00,80.6,64.5,30.09,WSW,252,4.0,5.0,58,0.00,,,0.00,898,Wunderground v.1.15,2013-08-10 18:55:00,
2013-08-10 13:56:00,80.9,62.7,30.09,SW,227,3.0,5.0,54,0.00,,,0.00,884,Wunderground v.1.15,2013-08-10 18:56:00,
2013-08-10 13:57:00,81.3,64.1,30.09,SW,223,5.0,5.0,56,0.00,,,0.00,905,Wunderground v.1.15,2013-08-10 18:57:00,
2013-08-10 14:00:00,81.2,61.4,30.09,WSW,247,5.0,5.0,51,0.00,,,0.00,911,Wunderground v.1.15,2013-08-10 19:00:00,
2013-08-10 14:03:00,81.4,61.5,30.09,SW,215,3.0,5.0,51,0.00,,,0.00,895,Wunderground v.1.15,2013-08-10 19:03:00,
2013-08-10 14:04:00,81.3,62.5,30.09,SW,222,2.0,5.0,53,0.00,,,0.00,891,Wunderground v.1.15,2013-08-10 19:04:00,
2013-08-10 14:05:00,81.2,62.4,30.09,SW,222,0.0,5.0,53,0.00,,,0.00,891,Wunderground v.1.15,2013-08-10 19:05:00,
2013-08-10 14:06:00,81.2,62.4,30.09,SW,217,0.0,5.0,53,0.00,,,0.00,884,Wunderground v.1.15,2013-08-10 19:06:00,
2013-08-10 14:07:00,81.2,60.2,30.09,SW,217,0.0,5.0,49,0.00,,,0.00,884,Wunderground v.1.15,2013-08-10 19:07:00,
2013-08-10 14:08:00,81.0,61.2,30.09,WSW,246,0.0,5.0,51,0.00,,,0.00,874,Wunderground v.1.15,2013-08-10 19:08:00,
2013-08-10 14:11:00,81.0,61.7,30.09,WSW,240,1.0,4.0,52,0.00,,,0.00,872,Wunderground v.1.15,2013-08-10 19:11:00,
2013-08-10 14:12:00,80.7,60.3,30.09,WSW,257,2.0,4.0,50,0.00,,,0.00,875,Wunderground v.1.15,2013-08-10 19:12:00,
2013-08-10 14:13:00,80.8,62.1,30.09,NNW,348,1.0,4.0,53,0.00,,,0.00,895,Wunderground v.1.15,2013-08-10 19:13:00,
2013-08-10 14:17:00,80.1,62.0,30.09,WNW,300,1.0,4.0,54,0.00,,,0.00,214,Wunderground v.1.15,2013-08-10 19:17:00,
2013-08-10 14:18:00,80.1,62.0,30.09,WNW,300,0.0,4.0,54,0.00,,,0.00,214,Wunderground v.1.15,2013-08-10 19:18:00,
2013-08-10 14:20:00,80.2,60.4,30.08,WNW,300,0.0,1.0,51,0.00,,,0.00,940,Wunderground v.1.15,2013-08-10 19:20:00,
2013-08-10 14:23:00,81.1,62.9,30.08,SW,229,3.0,3.0,54,0.00,,,0.00,930,Wunderground v.1.15,2013-08-10 19:23:00,
2013-08-10 14:24:00,81.3,63.1,30.08,SSW,213,5.0,5.0,54,0.00,,,0.00,923,Wunderground v.1.15,2013-08-10 19:24:00,
2013-08-10 14:25:00,81.6,62.8,30.08,SW,234,5.0,7.0,53,0.00,,,0.00,921,Wunderground v.1.15,2013-08-10 19:25:00,
2013-08-10 14:26:00,81.7,62.9,30.08,SW,219,3.0,7.0,53,0.00,,,0.00,921,Wunderground v.1.15,2013-08-10 19:26:00,
2013-08-10 14:28:00,81.7,62.4,30.08,WSW,240,0.0,7.0,52,0.00,,,0.00,898,Wunderground v.1.15,2013-08-10 19:28:00,
2013-08-10 14:29:00,81.7,63.4,30.08,WSW,240,3.0,7.0,54,0.00,,,0.00,889,Wunderground v.1.15,2013-08-10 19:29:00,
2013-08-10 14:30:00,81.8,63.5,30.08,WSW,237,0.0,7.0,54,0.00,,,0.00,886,Wunderground v.1.15,2013-08-10 19:30:00,
2013-08-10 14:31:00,82.0,62.1,30.08,WSW,240,1.0,6.0,51,0.00,,,0.00,884,Wunderground v.1.15,2013-08-10 19:31:00,
2013-08-10 14:33:00,81.9,61.4,30.08,SW,222,3.0,6.0,50,0.00,,,0.00,877,Wunderground v.1.15,2013-08-10 19:33:00,
2013-08-10 14:34:00,81.7,61.8,30.08,SSW,201,0.0,6.0,51,0.00,,,0.00,865,Wunderground v.1.15,2013-08-10 19:34:00,
2013-08-10 14:35:00,81.8,61.9,30.08,SSW,201,0.0,6.0,51,0.00,,,0.00,865,Wunderground v.1.15,2013-08-10 19:35:00,
2013-08-10 14:36:00,81.9,63.6,30.08,SSW,201,1.0,6.0,54,0.00,,,0.00,863,Wunderground v.1.15,2013-08-10 19:36:00,
2013-08-10 14:40:00,81.7,62.9,30.08,South,190,4.0,6.0,53,0.00,,,0.00,838,Wunderground v.1.15,2013-08-10 19:40:00,
2013-08-10 14:41:00,81.5,62.7,30.08,South,187,1.0,3.0,53,0.00,,,0.00,835,Wunderground v.1.15,2013-08-10 19:41:00,
2013-08-10 14:45:00,81.8,64.1,30.08,WSW,238,5.0,5.0,55,0.00,,,0.00,837,Wunderground v.1.15,2013-08-10 19:45:00,
2013-08-10 14:46:00,81.9,64.1,30.08,WSW,242,3.0,6.0,55,0.00,,,0.00,837,Wunderground v.1.15,2013-08-10 19:46:00,
2013-08-10 14:47:00,82.1,62.7,30.08,WSW,248,3.0,7.0,52,0.00,,,0.00,838,Wunderground v.1.15,2013-08-10 19:47:00,
2013-08-10 14:50:00,81.9,62.0,30.08,WSW,240,4.0,4.0,51,0.00,,,0.00,844,Wunderground v.1.15,2013-08-10 19:50:00,
2013-08-10 14:51:00,81.8,61.9,30.08,WSW,256,3.0,4.0,51,0.00,,,0.00,838,Wunderground v.1.15,2013-08-10 19:51:00,
2013-08-10 14:52:00,81.7,61.8,30.08,SSW,209,4.0,4.0,51,0.00,,,0.00,838,Wunderground v.1.15,2013-08-10 19:52:00,
2013-08-10 14:56:00,81.1,60.7,30.07,SW,221,0.0,4.0,50,0.00,,,0.00,831,Wunderground v.1.15,2013-08-10 19:56:00,
2013-08-10 14:57:00,81.2,61.9,30.07,SW,221,0.0,4.0,52,0.00,,,0.00,830,Wunderground v.1.15,2013-08-10 19:57:00,
2013-08-10 14:58:00,81.3,62.0,30.07,WSW,244,3.0,5.0,52,0.00,,,0.00,826,Wunderground v.1.15,2013-08-10 19:58:00,
2013-08-10 15:01:00,81.6,62.8,30.07,West,278,6.0,6.0,53,0.00,,,0.00,833,Wunderground v.1.15,2013-08-10 20:01:00,
2013-08-10 15:03:00,81.9,63.1,30.07,WSW,257,7.0,7.0,53,0.00,,,0.00,835,Wunderground v.1.15,2013-08-10 20:03:00,
2013-08-10 15:04:00,82.0,62.1,30.07,West,273,3.0,9.0,51,0.00,,,0.00,844,Wunderground v.1.15,2013-08-10 20:04:00,
2013-08-10 15:07:00,81.8,61.3,30.07,SW,225,1.0,9.0,50,0.00,,,0.00,563,Wunderground v.1.15,2013-08-10 20:07:00,
2013-08-10 15:08:00,81.7,61.8,30.07,SW,224,0.0,9.0,51,0.00,,,0.00,819,Wunderground v.1.15,2013-08-10 20:08:00,
2013-08-10 15:09:00,81.7,61.2,30.07,SSW,194,1.0,9.0,50,0.00,,,0.00,816,Wunderground v.1.15,2013-08-10 20:09:00,
2013-08-10 15:12:00,81.2,61.9,30.07,SSW,193,0.0,4.0,52,0.00,,,0.00,810,Wunderground v.1.15,2013-08-10 20:12:00,
2013-08-10 15:14:00,81.1,61.3,30.06,SW,229,1.0,4.0,51,0.00,,,0.00,812,Wunderground v.1.15,2013-08-10 20:14:00,
2013-08-10 15:15:00,81.1,60.7,30.06,SW,235,0.0,4.0,50,0.00,,,0.00,809,Wunderground v.1.15,2013-08-10 20:15:00,
2013-08-10 15:16:00,81.5,62.7,30.06,SW,223,0.0,4.0,53,0.00,,,0.00,800,Wunderground v.1.15,2013-08-10 20:16:00,
2013-08-10 15:17:00,81.7,62.9,30.06,SSE,155,3.0,7.0,53,0.00,,,0.00,800,Wunderground v.1.15,2013-08-10 20:17:00,
2013-08-10 15:20:00,82.2,64.4,30.06,SW,229,7.0,8.0,55,0.00,,,0.00,796,Wunderground v.1.15,2013-08-10 20:20:00,
2013-08-10 15:22:00,82.5,63.1,30.06,SW,229,4.0,7.0,52,0.00,,,0.00,795,Wunderground v.1.15,2013-08-10 20:22:00,
2013-08-10 15:23:00,82.4,63.0,30.06,SW,236,5.0,7.0,52,0.00,,,0.00,798,Wunderground v.1.15,2013-08-10 20:23:00,
2013-08-10 15:24:00,82.3,62.4,30.06,SW,231,4.0,7.0,51,0.00,,,0.00,807,Wunderground v.1.15,2013-08-10 20:24:00,
2013-08-10 15:25:00,82.3,62.4,30.06,SW,234,3.0,7.0,51,0.00,,,0.00,807,Wunderground v.1.15,2013-08-10 20:25:00,
2013-08-10 15:26:00,82.5,63.1,30.06,WSW,240,4.0,7.0,52,0.00,,,0.00,803,Wunderground v.1.15,2013-08-10 20:26:00,
2013-08-10 15:28:00,82.6,61.5,30.06,WSW,248,0.0,7.0,49,0.00,,,0.00,807,Wunderground v.1.15,2013-08-10 20:28:00,
2013-08-10 15:29:00,82.4,61.3,30.06,WSW,248,0.0,7.0,49,0.00,,,0.00,803,Wunderground v.1.15,2013-08-10 20:29:00,
2013-08-10 15:30:00,82.4,61.9,30.06,WSW,248,0.0,7.0,50,0.00,,,0.00,803,Wunderground v.1.15,2013-08-10 20:30:00,
2013-08-10 15:31:00,82.3,61.8,30.06,SW,234,2.0,4.0,50,0.00,,,0.00,802,Wunderground v.1.15,2013-08-10 20:31:00,
2013-08-10 15:34:00,81.9,62.5,30.05,WSW,238,0.0,4.0,52,0.00,,,0.00,802,Wunderground v.1.15,2013-08-10 20:34:00,
2013-08-10 15:35:00,82.3,62.4,30.06,WSW,238,1.0,4.0,51,0.00,,,0.00,803,Wunderground v.1.15,2013-08-10 20:35:00,
2013-08-10 15:36:00,82.4,61.3,30.06,WSW,238,0.0,4.0,49,0.00,,,0.00,805,Wunderground v.1.15,2013-08-10 20:36:00,
2013-08-10 15:37:00,82.3,60.6,30.05,WSW,238,0.0,4.0,48,0.00,,,0.00,803,Wunderground v.1.15,2013-08-10 20:37:00,
2013-08-10 15:41:00,83.6,62.4,30.05,NNW,338,2.0,3.0,49,0.00,,,0.00,780,Wunderground v.1.15,2013-08-10 20:41:00,
2013-08-10 15:43:00,83.6,62.4,30.05,West,269,3.0,6.0,49,0.00,,,0.00,782,Wunderground v.1.15,2013-08-10 20:43:00,
2013-08-10 15:46:00,83.2,63.7,30.05,WSW,244,4.0,6.0,52,0.00,,,0.00,780,Wunderground v.1.15,2013-08-10 20:46:00,
2013-08-10 15:47:00,83.2,63.7,30.05,SW,215,4.0,6.0,52,0.00,,,0.00,773,Wunderground v.1.15,2013-08-10 20:47:00,
2013-08-10 15:48:00,83.0,61.9,30.05,SSW,208,0.0,6.0,49,0.00,,,0.00,758,Wunderground v.1.15,2013-08-10 20:48:00,
2013-08-10 15:51:00,82.7,62.7,30.05,WSW,241,2.0,3.0,51,0.00,,,0.00,758,Wunderground v.1.15,2013-08-10 20:51:00,
2013-08-10 15:52:00,82.7,62.7,30.05,WSW,238,3.0,3.0,51,0.00,,,0.00,758,Wunderground v.1.15,2013-08-10 20:52:00,
2013-08-10 15:53:00,82.7,62.7,30.05,West,266,1.0,5.0,51,0.00,,,0.00,766,Wunderground v.1.15,2013-08-10 20:53:00,
2013-08-10 15:54:00,82.7,63.3,30.05,SW,236,5.0,5.0,52,0.00,,,0.00,766,Wunderground v.1.15,2013-08-10 20:54:00,
2013-08-10 15:57:00,82.8,62.3,30.05,WSW,241,6.0,6.0,50,0.00,,,0.00,816,Wunderground v.1.15,2013-08-10 20:57:00,
2013-08-10 15:58:00,82.8,62.3,30.05,WSW,240,6.0,6.0,50,0.00,,,0.00,816,Wunderground v.1.15,2013-08-10 20:58:00,
2013-08-10 15:59:00,83.0,63.0,30.05,SW,231,2.0,6.0,51,0.00,,,0.00,816,Wunderground v.1.15,2013-08-10 20:59:00,
2013-08-10 16:02:00,82.9,61.2,30.05,SW,221,0.0,4.0,48,0.00,,,0.00,647,Wunderground v.1.15,2013-08-10 21:02:00,
2013-08-10 16:03:00,82.9,61.2,30.05,SW,221,0.0,4.0,48,0.00,,,0.00,738,Wunderground v.1.15,2013-08-10 21:03:00,
2013-08-10 16:04:00,82.8,61.7,30.05,SW,221,0.0,4.0,49,0.00,,,0.00,738,Wunderground v.1.15,2013-08-10 21:04:00,
2013-08-10 16:05:00,82.7,61.6,30.05,SW,221,0.0,4.0,49,0.00,,,0.00,738,Wunderground v.1.15,2013-08-10 21:05:00,
2013-08-10 16:08:00,83.1,63.1,30.05,SW,236,1.0,7.0,51,0.00,,,0.00,659,Wunderground v.1.15,2013-08-10 21:08:00,
2013-08-10 16:09:00,83.2,63.7,30.05,SW,221,2.0,7.0,52,0.00,,,0.00,659,Wunderground v.1.15,2013-08-10 21:09:00,
2013-08-10 16:10:00,83.0,61.3,30.05,SW,221,3.0,7.0,48,0.00,,,0.00,417,Wunderground v.1.15,2013-08-10 21:10:00,
2013-08-10 16:11:00,82.8,62.8,30.05,SW,232,2.0,4.0,51,0.00,,,0.00,860,Wunderground v.1.15,2013-08-10 21:11:00,
2013-08-10 16:12:00,83.0,63.6,30.05,West,265,6.0,6.0,52,0.00,,,0.00,765,Wunderground v.1.15,2013-08-10 21:12:00,
2013-08-10 16:14:00,83.3,62.7,30.05,West,272,5.0,6.0,50,0.00,,,0.00,854,Wunderground v.1.15,2013-08-10 21:14:00,
2013-08-10 16:15:00,83.4,63.4,30.05,WSW,242,5.0,7.0,51,0.00,,,0.00,865,Wunderground v.1.15,2013-08-10 21:15:00,
2013-08-10 16:16:00,83.7,64.8,30.05,WSW,253,4.0,7.0,53,0.00,,,0.00,856,Wunderground v.1.15,2013-08-10 21:16:00,
2013-08-10 16:17:00,83.8,62.6,30.05,SW,227,1.0,7.0,49,0.00,,,0.00,835,Wunderground v.1.15,2013-08-10 21:17:00,
2013-08-10 16:20:00,83.7,63.7,30.05,SSW,200,2.0,4.0,51,0.00,,,0.00,728,Wunderground v.1.15,2013-08-10 21:20:00,
2013-08-10 16:21:00,83.6,62.4,30.05,SSW,200,0.0,4.0,49,0.00,,,0.00,758,Wunderground v.1.15,2013-08-10 21:21:00,
2013-08-10 16:22:00,83.7,63.1,30.05,SSW,200,0.0,4.0,50,0.00,,,0.00,737,Wunderground v.1.15,2013-08-10 21:22:00,
2013-08-10 16:23:00,83.7,63.1,30.05,SSW,204,0.0,4.0,50,0.00,,,0.00,737,Wunderground v.1.15,2013-08-10 21:23:00,
2013-08-10 16:26:00,83.8,62.6,30.05,WSW,246,3.0,4.0,49,0.00,,,0.00,752,Wunderground v.1.15,2013-08-10 21:26:00,
2013-08-10 16:27:00,83.8,62.0,30.05,WSW,242,0.0,4.0,48,0.00,,,0.00,756,Wunderground v.1.15,2013-08-10 21:27:00,
2013-08-10 16:28:00,83.7,61.9,30.04,SW,215,1.0,5.0,48,0.00,,,0.00,752,Wunderground v.1.15,2013-08-10 21:28:00,
2013-08-10 16:29:00,83.5,62.3,30.04,SW,215,1.0,5.0,49,0.00,,,0.00,772,Wunderground v.1.15,2013-08-10 21:29:00,
2013-08-10 16:31:00,83.3,62.7,30.04,WSW,248,1.0,4.0,50,0.00,,,0.00,770,Wunderground v.1.15,2013-08-10 21:31:00,
2013-08-10 16:33:00,83.3,62.1,30.04,SW,232,3.0,6.0,49,0.00,,,0.00,751,Wunderground v.1.15,2013-08-10 21:33:00,
2013-08-10 16:34:00,83.2,62.1,30.04,SW,224,3.0,6.0,49,0.00,,,0.00,751,Wunderground v.1.15,2013-08-10 21:34:00,
2013-08-10 16:35:00,83.1,63.7,30.04,WSW,237,7.0,7.0,52,0.00,,,0.00,744,Wunderground v.1.15,2013-08-10 21:35:00,
2013-08-10 16:37:00,83.2,61.5,30.04,WSW,240,2.0,7.0,48,0.00,,,0.00,756,Wunderground v.1.15,2013-08-10 21:37:00,
2013-08-10 16:39:00,83.3,62.7,30.04,SSW,206,4.0,7.0,50,0.00,,,0.00,756,Wunderground v.1.15,2013-08-10 21:39:00,
2013-08-10 16:40:00,83.1,62.5,30.04,SSW,210,0.0,7.0,50,0.00,,,0.00,278,Wunderground v.1.15,2013-08-10 21:40:00,
2013-08-10 16:42:00,82.7,62.7,30.04,WSW,238,4.0,5.0,51,0.00,,,0.00,287,Wunderground v.1.15,2013-08-10 21:42:00,
2013-08-10 16:43:00,82.6,63.2,30.04,WSW,248,4.0,5.0,52,0.00,,,0.00,478,Wunderground v.1.15,2013-08-10 21:43:00,
2013-08-10 16:44:00,82.4,61.9,30.04,WSW,248,2.0,5.0,50,0.00,,,0.00,478,Wunderground v.1.15,2013-08-10 21:44:00,
2013-08-10 16:46:00,82.0,63.2,30.04,WSW,247,2.0,5.0,53,0.00,,,0.00,244,Wunderground v.1.15,2013-08-10 21:46:00,
2013-08-10 16:48:00,81.7,62.4,30.04,WSW,247,0.0,5.0,52,0.00,,,0.00,234,Wunderground v.1.15,2013-08-10 21:48:00,
2013-08-10 16:49:00,81.5,61.6,30.04,WSW,247,0.0,5.0,51,0.00,,,0.00,236,Wunderground v.1.15,2013-08-10 21:49:00,
2013-08-10 16:52:00,81.2,62.4,30.04,SW,227,0.0,2.0,53,0.00,,,0.00,225,Wunderground v.1.15,2013-08-10 21:52:00,
2013-08-10 16:53:00,81.1,61.3,30.04,SW,227,0.0,2.0,51,0.00,,,0.00,213,Wunderground v.1.15,2013-08-10 21:53:00,
2013-08-10 16:54:00,80.9,61.6,30.04,SW,227,0.0,2.0,52,0.00,,,0.00,202,Wunderground v.1.15,2013-08-10 21:54:00,
2013-08-10 16:55:00,80.8,61.5,30.04,SW,230,0.0,2.0,52,0.00,,,0.00,190,Wunderground v.1.15,2013-08-10 21:55:00,
2013-08-10 16:56:00,80.8,61.5,30.04,SW,230,0.0,2.0,52,0.00,,,0.00,190,Wunderground v.1.15,2013-08-10 21:56:00,
2013-08-10 16:58:00,80.6,61.3,30.04,SW,227,0.0,2.0,52,0.00,,,0.00,197,Wunderground v.1.15,2013-08-10 21:58:00,
2013-08-10 17:00:00,80.6,62.4,30.04,SSW,211,0.0,1.0,54,0.00,,,0.00,185,Wunderground v.1.15,2013-08-10 22:00:00,
2013-08-10 17:01:00,80.6,62.4,30.04,South,169,2.0,2.0,54,0.00,,,0.00,185,Wunderground v.1.15,2013-08-10 22:01:00,
2013-08-10 17:04:00,80.5,60.7,30.04,SSE,161,0.0,2.0,51,0.00,,,0.00,197,Wunderground v.1.15,2013-08-10 22:04:00,
2013-08-10 17:06:00,80.5,62.3,30.04,SSE,161,0.0,2.0,54,0.00,,,0.00,207,Wunderground v.1.15,2013-08-10 22:06:00,
2013-08-10 17:07:00,80.5,62.3,30.04,SSE,153,1.0,2.0,54,0.00,,,0.00,211,Wunderground v.1.15,2013-08-10 22:07:00,
2013-08-10 17:08:00,80.5,62.8,30.04,SSE,156,0.0,2.0,55,0.00,,,0.00,216,Wunderground v.1.15,2013-08-10 22:08:00,
2013-08-10 17:09:00,80.6,60.8,30.04,SSE,156,0.0,2.0,51,0.00,,,0.00,234,Wunderground v.1.15,2013-08-10 22:09:00,
2013-08-10 17:11:00,80.6,61.9,30.04,SSE,156,0.0,0.0,53,0.00,,,0.00,229,Wunderground v.1.15,2013-08-10 22:11:00,
2013-08-10 17:13:00,80.7,62.5,30.04,SSE,152,0.0,1.0,54,0.00,,,0.00,227,Wunderground v.1.15,2013-08-10 22:13:00,
2013-08-10 17:16:00,80.8,61.5,30.04,SE,137,0.0,1.0,52,0.00,,,0.00,271,Wunderground v.1.15,2013-08-10 22:16:00,
2013-08-10 17:19:00,81.0,61.2,30.04,ESE,113,0.0,1.0,51,0.00,,,0.00,290,Wunderground v.1.15,2013-08-10 22:19:00,
2013-08-10 17:20:00,81.2,61.9,30.04,East,101,0.0,0.0,52,0.00,,,0.00,281,Wunderground v.1.15,2013-08-10 22:20:00,
2013-08-10 17:21:00,81.2,61.9,30.03,East,101,0.0,0.0,52,0.00,,,0.00,276,Wunderground v.1.15,2013-08-10 22:21:00,
2013-08-10 17:22:00,81.1,63.4,30.03,East,101,0.0,0.0,55,0.00,,,0.00,271,Wunderground v.1.15,2013-08-10 22:22:00,
2013-08-10 17:24:00,81.2,62.4,30.03,East,101,0.0,0.0,53,0.00,,,0.00,301,Wunderground v.1.15,2013-08-10 22:24:00,
2013-08-10 17:26:00,81.4,62.6,30.03,East,101,0.0,0.0,53,0.00,,,0.00,290,Wunderground v.1.15,2013-08-10 22:26:00,
2013-08-10 17:29:00,81.5,61.6,30.03,West,259,2.0,3.0,51,0.00,,,0.00,352,Wunderground v.1.15,2013-08-10 22:29:00,
2013-08-10 17:30:00,81.4,61.5,30.03,West,259,0.0,0.0,51,0.00,,,0.00,297,Wunderground v.1.15,2013-08-10 22:30:00,
2013-08-10 17:31:00,81.4,62.6,30.04,West,263,0.0,0.0,53,0.00,,,0.00,295,Wunderground v.1.15,2013-08-10 22:31:00,
2013-08-10 17:34:00,81.4,62.1,30.03,WSW,258,0.0,0.0,52,0.00,,,0.00,272,Wunderground v.1.15,2013-08-10 22:34:00,
2013-08-10 17:36:00,81.3,62.5,30.03,West,263,0.0,0.0,53,0.00,,,0.00,302,Wunderground v.1.15,2013-08-10 22:36:00,
2013-08-10 17:37:00,81.3,63.1,30.04,SW,216,0.0,0.0,54,0.00,,,0.00,250,Wunderground v.1.15,2013-08-10 22:37:00,
2013-08-10 17:38:00,81.3,63.1,30.04,SW,216,0.0,0.0,54,0.00,,,0.00,250,Wunderground v.1.15,2013-08-10 22:38:00,
2013-08-10 17:39:00,81.3,63.1,30.03,SW,216,0.0,0.0,54,0.00,,,0.00,272,Wunderground v.1.15,2013-08-10 22:39:00,
2013-08-10 17:41:00,81.4,63.7,30.03,SW,233,0.0,2.0,55,0.00,,,0.00,343,Wunderground v.1.15,2013-08-10 22:41:00,
2013-08-10 17:43:00,81.6,63.9,30.03,SW,233,0.0,2.0,55,0.00,,,0.00,366,Wunderground v.1.15,2013-08-10 22:43:00,
2013-08-10 17:45:00,81.6,62.8,30.03,SSW,212,1.0,3.0,53,0.00,,,0.00,271,Wunderground v.1.15,2013-08-10 22:45:00,
2013-08-10 17:46:00,81.7,62.4,30.03,SW,221,1.0,3.0,52,0.00,,,0.00,555,Wunderground v.1.15,2013-08-10 22:46:00,
2013-08-10 17:47:00,81.7,62.4,30.03,SSW,213,1.0,3.0,52,0.00,,,0.00,555,Wunderground v.1.15,2013-08-10 22:47:00,
2013-08-10 17:48:00,81.7,62.4,30.03,SW,227,3.0,4.0,52,0.00,,,0.00,250,Wunderground v.1.15,2013-08-10 22:48:00,
2013-08-10 17:49:00,81.6,62.3,30.03,SW,227,1.0,4.0,52,0.00,,,0.00,236,Wunderground v.1.15,2013-08-10 22:49:00,
2013-08-10 17:51:00,81.4,63.2,30.03,SW,231,0.0,1.0,54,0.00,,,0.00,218,Wunderground v.1.15,2013-08-10 22:51:00,
2013-08-10 17:53:00,81.2,63.5,30.03,SW,216,0.0,2.0,55,0.00,,,0.00,211,Wunderground v.1.15,2013-08-10 22:53:00,
2013-08-10 17:54:00,81.1,63.4,30.03,SW,215,0.0,2.0,55,0.00,,,0.00,207,Wunderground v.1.15,2013-08-10 22:54:00,
2013-08-10 17:56:00,81.1,63.4,30.03,SW,216,0.0,2.0,55,0.00,,,0.00,197,Wunderground v.1.15,2013-08-10 22:56:00,
2013-08-10 17:58:00,81.0,63.3,30.03,SSW,209,0.0,2.0,55,0.00,,,0.00,195,Wunderground v.1.15,2013-08-10 22:58:00,
2013-08-10 17:59:00,80.9,63.2,30.03,SSW,203,0.0,3.0,55,0.00,,,0.00,258,Wunderground v.1.15,2013-08-10 22:59:00,
2013-08-10 18:00:00,80.9,63.2,30.03,SSW,211,0.0,0.0,55,0.00,,,0.00,258,Wunderground v.1.15,2013-08-10 23:00:00,
2013-08-10 18:03:00,80.9,63.2,30.03,SW,220,1.0,4.0,55,0.00,,,0.00,204,Wunderground v.1.15,2013-08-10 23:03:00,
2013-08-10 18:05:00,80.8,63.6,30.03,SSW,207,1.0,4.0,56,0.00,,,0.00,192,Wunderground v.1.15,2013-08-10 23:05:00,
2013-08-10 18:06:00,80.7,64.5,30.03,SSW,209,2.0,4.0,58,0.00,,,0.00,179,Wunderground v.1.15,2013-08-10 23:06:00,
2013-08-10 18:08:00,80.7,64.1,30.03,SSW,210,0.0,4.0,57,0.00,,,0.00,163,Wunderground v.1.15,2013-08-10 23:08:00,
2013-08-10 18:10:00,80.6,63.5,30.03,SSW,206,0.0,1.0,56,0.00,,,0.00,153,Wunderground v.1.15,2013-08-10 23:10:00,
2013-08-10 18:12:00,80.5,63.4,30.03,SSW,206,0.0,1.0,56,0.00,,,0.00,146,Wunderground v.1.15,2013-08-10 23:12:00,
2013-08-10 18:13:00,80.5,63.4,30.03,SSW,206,0.0,1.0,56,0.00,,,0.00,146,Wunderground v.1.15,2013-08-10 23:13:00,
2013-08-10 18:15:00,80.4,63.3,30.03,SSW,205,0.0,1.0,56,0.00,,,0.00,155,Wunderground v.1.15,2013-08-10 23:15:00,
2013-08-10 18:17:00,80.4,63.8,30.03,SSW,205,0.0,1.0,57,0.00,,,0.00,165,Wunderground v.1.15,2013-08-10 23:17:00,
2013-08-10 18:18:00,80.4,63.8,30.03,SSW,205,0.0,1.0,57,0.00,,,0.00,169,Wunderground v.1.15,2013-08-10 23:18:00,
2013-08-10 18:19:00,80.4,63.8,30.03,SSW,207,0.0,1.0,57,0.00,,,0.00,171,Wunderground v.1.15,2013-08-10 23:19:00,
2013-08-10 18:21:00,80.4,62.8,30.03,SSW,209,0.0,2.0,55,0.00,,,0.00,167,Wunderground v.1.15,2013-08-10 23:21:00,
2013-08-10 18:23:00,80.4,62.8,30.03,SSW,209,0.0,2.0,55,0.00,,,0.00,155,Wunderground v.1.15,2013-08-10 23:23:00,
2013-08-10 18:24:00,80.4,63.3,30.03,SSW,209,0.0,2.0,56,0.00,,,0.00,151,Wunderground v.1.15,2013-08-10 23:24:00,
2013-08-10 18:25:00,80.4,62.8,30.03,SSW,209,0.0,2.0,55,0.00,,,0.00,151,Wunderground v.1.15,2013-08-10 23:25:00,
2013-08-10 18:26:00,80.4,62.8,30.03,SSW,209,0.0,2.0,55,0.00,,,0.00,146,Wunderground v.1.15,2013-08-10 23:26:00,
2013-08-10 18:27:00,80.4,62.8,30.03,SSW,209,0.0,2.0,55,0.00,,,0.00,144,Wunderground v.1.15,2013-08-10 23:27:00,
2013-08-10 18:28:00,80.4,63.3,30.03,SSW,209,0.0,2.0,56,0.00,,,0.00,142,Wunderground v.1.15,2013-08-10 23:28:00,
2013-08-10 18:32:00,80.3,62.1,30.03,SSW,209,0.0,0.0,54,0.00,,,0.00,146,Wunderground v.1.15,2013-08-10 23:32:00,
2013-08-10 18:33:00,80.3,63.2,30.03,SSW,209,0.0,0.0,56,0.00,,,0.00,146,Wunderground v.1.15,2013-08-10 23:33:00,
2013-08-10 18:35:00,80.3,62.1,30.03,SSW,209,0.0,0.0,54,0.00,,,0.00,146,Wunderground v.1.15,2013-08-10 23:35:00,
2013-08-10 18:37:00,80.3,62.7,30.03,SSW,202,0.0,0.0,55,0.00,,,0.00,144,Wunderground v.1.15,2013-08-10 23:37:00,
2013-08-10 18:38:00,80.3,62.1,30.03,SSW,209,0.0,0.0,54,0.00,,,0.00,144,Wunderground v.1.15,2013-08-10 23:38:00,
2013-08-10 18:40:00,80.3,61.6,30.03,SSW,209,0.0,0.0,53,0.00,,,0.00,146,Wunderground v.1.15,2013-08-10 23:40:00,
2013-08-10 18:41:00,80.4,63.3,30.03,SSW,209,0.0,0.0,56,0.00,,,0.00,149,Wunderground v.1.15,2013-08-10 23:41:00,
2013-08-10 18:43:00,80.4,62.8,30.03,SSW,209,0.0,0.0,55,0.00,,,0.00,139,Wunderground v.1.15,2013-08-10 23:43:00,
2013-08-10 18:45:00,80.4,62.8,30.03,SSW,209,0.0,0.0,55,0.00,,,0.00,120,Wunderground v.1.15,2013-08-10 23:45:00,
2013-08-10 18:46:00,80.3,64.2,30.03,SSW,202,0.0,0.0,58,0.00,,,0.00,114,Wunderground v.1.15,2013-08-10 23:46:00,
2013-08-10 18:47:00,80.3,64.2,30.03,SSW,209,0.0,0.0,58,0.00,,,0.00,114,Wunderground v.1.15,2013-08-10 23:47:00,
2013-08-10 18:49:00,80.3,64.2,30.03,SSW,209,0.0,0.0,58,0.00,,,0.00,118,Wunderground v.1.15,2013-08-10 23:49:00,
2013-08-10 18:50:00,80.2,64.6,30.02,SSW,209,0.0,0.0,59,0.00,,,0.00,116,Wunderground v.1.15,2013-08-10 23:50:00,
2013-08-10 18:53:00,80.1,64.5,30.03,SSW,209,0.0,0.0,59,0.00,,,0.00,102,Wunderground v.1.15,2013-08-10 23:53:00,
2013-08-10 18:54:00,80.0,64.4,30.03,SSW,209,0.0,0.0,59,0.00,,,0.00,98,Wunderground v.1.15,2013-08-10 23:54:00,
2013-08-10 18:55:00,79.9,64.8,30.03,SSW,209,0.0,0.0,60,0.00,,,0.00,105,Wunderground v.1.15,2013-08-10 23:55:00,
2013-08-10 18:58:00,79.6,65.0,30.03,SSW,209,0.0,0.0,61,0.00,,,0.00,163,Wunderground v.1.15,2013-08-10 23:58:00,
2013-08-10 19:00:00,79.6,65.4,30.02,SSW,209,0.0,0.0,62,0.00,,,0.00,128,Wunderground v.1.15,2013-08-11 00:00:00,
2013-08-10 19:03:00,79.6,65.4,30.02,SSW,209,0.0,0.0,62,0.00,,,0.00,146,Wunderground v.1.15,2013-08-11 00:03:00,
2013-08-10 19:04:00,79.6,65.0,30.02,SSW,209,0.0,0.0,61,0.00,,,0.00,148,Wunderground v.1.15,2013-08-11 00:04:00,
2013-08-10 19:06:00,79.6,65.0,30.02,SSW,209,0.0,0.0,61,0.00,,,0.00,137,Wunderground v.1.15,2013-08-11 00:06:00,
2013-08-10 19:07:00,79.6,65.4,30.02,SSW,209,0.0,0.0,62,0.00,,,0.00,137,Wunderground v.1.15,2013-08-11 00:07:00,
2013-08-10 19:09:00,79.6,65.0,30.02,SSW,209,0.0,0.0,61,0.00,,,0.00,90,Wunderground v.1.15,2013-08-11 00:09:00,
2013-08-10 19:10:00,79.6,65.0,30.02,SSW,202,0.0,0.0,61,0.00,,,0.00,81,Wunderground v.1.15,2013-08-11 00:10:00,
2013-08-10 19:12:00,79.4,64.8,30.02,SSW,209,0.0,0.0,61,0.00,,,0.00,77,Wunderground v.1.15,2013-08-11 00:12:00,
2013-08-10 19:14:00,79.3,65.1,30.02,SSW,209,0.0,0.0,62,0.00,,,0.00,70,Wunderground v.1.15,2013-08-11 00:14:00,
2013-08-10 19:15:00,79.2,65.5,30.02,SSW,209,0.0,0.0,63,0.00,,,0.00,86,Wunderground v.1.15,2013-08-11 00:15:00,
2013-08-10 19:16:00,79.1,65.0,30.02,SSW,209,0.0,0.0,62,0.00,,,0.00,88,Wunderground v.1.15,2013-08-11 00:16:00,
2013-08-10 19:17:00,79.1,65.4,30.02,SSW,209,0.0,0.0,63,0.00,,,0.00,62,Wunderground v.1.15,2013-08-11 00:17:00,
2013-08-10 19:19:00,79.1,65.0,30.02,SSW,209,0.0,0.0,62,0.00,,,0.00,54,Wunderground v.1.15,2013-08-11 00:19:00,
2013-08-10 19:20:00,79.1,65.0,30.02,SSW,209,0.0,0.0,62,0.00,,,0.00,54,Wunderground v.1.15,2013-08-11 00:20:00,
2013-08-10 19:22:00,78.9,65.2,30.02,SSW,209,0.0,0.0,63,0.00,,,0.00,49,Wunderground v.1.15,2013-08-11 00:22:00,
2013-08-10 19:23:00,78.9,65.2,30.02,SSW,209,0.0,0.0,63,0.00,,,0.00,49,Wunderground v.1.15,2013-08-11 00:23:00,
2013-08-10 19:25:00,78.9,64.8,30.02,SSW,209,0.0,0.0,62,0.00,,,0.00,56,Wunderground v.1.15,2013-08-11 00:25:00,
2013-08-10 19:28:00,78.8,64.7,30.02,SSW,210,0.0,0.0,62,0.00,,,0.00,63,Wunderground v.1.15,2013-08-11 00:28:00,
2013-08-10 19:29:00,78.8,64.7,30.02,SSW,210,0.0,0.0,62,0.00,,,0.00,63,Wunderground v.1.15,2013-08-11 00:29:00,
2013-08-10 19:30:00,78.8,64.7,30.02,SSW,210,0.0,1.0,62,0.00,,,0.00,56,Wunderground v.1.15,2013-08-11 00:30:00,
2013-08-10 19:34:00,78.2,65.5,30.02,SW,222,0.0,1.0,65,0.00,,,0.00,44,Wunderground v.1.15,2013-08-11 00:34:00,
2013-08-10 19:35:00,78.1,65.4,30.02,SW,223,0.0,1.0,65,0.00,,,0.00,46,Wunderground v.1.15,2013-08-11 00:35:00,
2013-08-10 19:37:00,78.0,64.8,30.02,WSW,240,0.0,1.0,64,0.00,,,0.00,47,Wunderground v.1.15,2013-08-11 00:37:00,
2013-08-10 19:39:00,77.9,65.2,30.02,West,262,0.0,1.0,65,0.00,,,0.00,44,Wunderground v.1.15,2013-08-11 00:39:00,
2013-08-10 19:40:00,77.8,65.1,30.02,West,262,0.0,0.0,65,0.00,,,0.00,44,Wunderground v.1.15,2013-08-11 00:40:00,
2013-08-10 19:41:00,77.6,65.8,30.02,West,262,0.0,0.0,67,0.00,,,0.00,37,Wunderground v.1.15,2013-08-11 00:41:00,
2013-08-10 19:44:00,77.2,66.2,30.02,West,263,0.0,0.0,69,0.00,,,0.00,35,Wunderground v.1.15,2013-08-11 00:44:00,
2013-08-10 19:45:00,77.1,66.1,30.02,WNW,283,0.0,0.0,69,0.00,,,0.00,35,Wunderground v.1.15,2013-08-11 00:45:00,
2013-08-10 19:47:00,77.1,66.6,30.02,WNW,290,0.0,0.0,70,0.00,,,0.00,35,Wunderground v.1.15,2013-08-11 00:47:00,
2013-08-10 19:48:00,76.9,66.4,30.02,WNW,290,0.0,0.0,70,0.00,,,0.00,32,Wunderground v.1.15,2013-08-11 00:48:00,
2013-08-10 19:50:00,76.6,66.9,30.02,WNW,290,0.0,0.0,72,0.00,,,0.00,26,Wunderground v.1.15,2013-08-11 00:50:00,
2013-08-10 19:51:00,76.5,66.8,30.02,WNW,291,0.0,0.0,72,0.00,,,0.00,25,Wunderground v.1.15,2013-08-11 00:51:00,
2013-08-10 19:52:00,76.3,67.0,30.02,WNW,290,0.0,0.0,73,0.00,,,0.00,21,Wunderground v.1.15,2013-08-11 00:52:00,
2013-08-10 19:54:00,76.0,67.1,30.02,WNW,290,0.0,0.0,74,0.00,,,0.00,18,Wunderground v.1.15,2013-08-11 00:54:00,
2013-08-10 19:56:00,75.5,67.0,30.02,WNW,290,0.0,0.0,75,0.00,,,0.00,14,Wunderground v.1.15,2013-08-11 00:56:00,
2013-08-10 19:57:00,75.5,67.0,30.02,WNW,291,0.0,0.0,75,0.00,,,0.00,12,Wunderground v.1.15,2013-08-11 00:57:00,
2013-08-10 19:58:00,75.3,67.2,30.02,WNW,290,0.0,0.0,76,0.00,,,0.00,12,Wunderground v.1.15,2013-08-11 00:58:00,
2013-08-10 19:59:00,75.1,67.0,30.02,WNW,291,0.0,0.0,76,0.00,,,0.00,11,Wunderground v.1.15,2013-08-11 00:59:00,
2013-08-10 20:02:00,74.8,66.7,30.02,WNW,291,0.0,0.0,76,0.00,,,0.00,7,Wunderground v.1.15,2013-08-11 01:02:00,
2013-08-10 20:03:00,74.8,66.3,30.02,WNW,290,0.0,0.0,75,0.00,,,0.00,7,Wunderground v.1.15,2013-08-11 01:03:00,
2013-08-10 20:05:00,74.7,66.6,30.02,WNW,291,0.0,0.0,76,0.00,,,0.00,5,Wunderground v.1.15,2013-08-11 01:05:00,
2013-08-10 20:08:00,74.6,66.9,30.02,WNW,291,0.0,0.0,77,0.00,,,0.00,5,Wunderground v.1.15,2013-08-11 01:08:00,
2013-08-10 20:10:00,74.8,66.0,30.01,WNW,292,0.0,1.0,74,0.00,,,0.00,5,Wunderground v.1.15,2013-08-11 01:10:00,
2013-08-10 20:11:00,75.1,65.9,30.01,WNW,292,0.0,1.0,73,0.00,,,0.00,0,Wunderground v.1.15,2013-08-11 01:11:00,
2013-08-10 20:12:00,75.3,66.0,30.01,WNW,292,0.0,1.0,73,0.00,,,0.00,0,Wunderground v.1.15,2013-08-11 01:12:00,
2013-08-10 20:13:00,75.6,65.9,30.02,WNW,293,0.0,1.0,72,0.00,,,0.00,0,Wunderground v.1.15,2013-08-11 01:13:00,
2013-08-10 20:15:00,75.9,65.8,30.02,WNW,295,0.0,1.0,71,0.00,,,0.00,0,Wunderground v.1.15,2013-08-11 01:15:00,
2013-08-10 20:16:00,76.0,65.9,30.02,WNW,295,0.0,1.0,71,0.00,,,0.00,0,Wunderground v.1.15,2013-08-11 01:16:00,
2013-08-10 20:17:00,76.0,65.9,30.01,WNW,300,1.0,1.0,71,0.00,,,0.00,0,Wunderground v.1.15,2013-08-11 01:17:00,
2013-08-10 20:19:00,75.9,66.2,30.01,NW,316,0.0,2.0,72,0.00,,,0.00,0,Wunderground v.1.15,2013-08-11 01:19:00,
2013-08-10 20:20:00,75.6,65.9,30.01,NW,316,0.0,0.0,72,0.00,,,0.00,0,Wunderground v.1.15,2013-08-11 01:20:00,
2013-08-10 20:21:00,75.4,66.1,30.01,NW,316,0.0,0.0,73,0.00,,,0.00,0,Wunderground v.1.15,2013-08-11 01:21:00,
2013-08-10 20:23:00,75.1,65.9,30.01,NW,316,1.0,1.0,73,0.00,,,0.00,0,Wunderground v.1.15,2013-08-11 01:23:00,
2013-08-10 20:24:00,75.0,65.8,30.01,NW,316,0.0,1.0,73,0.00,,,0.00,0,Wunderground v.1.15,2013-08-11 01:24:00,
2013-08-10 20:26:00,74.9,65.7,30.01,NW,317,0.0,1.0,73,0.00,,,0.00,0,Wunderground v.1.15,2013-08-11 01:26:00,
2013-08-10 20:27:00,74.8,65.6,30.01,NW,317,0.0,1.0,73,0.00,,,0.00,0,Wunderground v.1.15,2013-08-11 01:27:00,
2013-08-10 20:29:00,74.6,65.8,30.01,NW,317,0.0,1.0,74,0.00,,,0.00,0,Wunderground v.1.15,2013-08-11 01:29:00,
2013-08-10 20:31:00,74.3,65.5,30.01,NW,317,0.0,0.0,74,0.00,,,0.00,0,Wunderground v.1.15,2013-08-11 01:31:00,
2013-08-10 20:33:00,74.2,65.0,30.01,NW,317,0.0,0.0,73,0.00,,,0.00,0,Wunderground v.1.15,2013-08-11 01:33:00,
2013-08-10 20:34:00,74.1,64.9,30.01,NW,317,0.0,0.0,73,0.00,,,0.00,0,Wunderground v.1.15,2013-08-11 01:34:00,
2013-08-10 20:35:00,74.0,65.2,30.00,NW,317,0.0,0.0,74,0.00,,,0.00,0,Wunderground v.1.15,2013-08-11 01:35:00,
2013-08-10 20:37:00,73.9,65.1,30.01,NW,317,0.0,0.0,74,0.00,,,0.00,0,Wunderground v.1.15,2013-08-11 01:37:00,
2013-08-10 20:38:00,73.7,65.3,30.00,NW,317,0.0,0.0,75,0.00,,,0.00,0,Wunderground v.1.15,2013-08-11 01:38:00,
2013-08-10 20:42:00,73.5,65.1,30.00,NW,317,0.0,0.0,75,0.00,,,0.00,0,Wunderground v.1.15,2013-08-11 01:42:00,
2013-08-10 20:44:00,73.4,65.4,30.00,NW,317,0.0,0.0,76,0.00,,,0.00,0,Wunderground v.1.15,2013-08-11 01:44:00,
2013-08-10 20:47:00,72.8,65.2,30.00,NW,317,0.0,0.0,77,0.00,,,0.00,0,Wunderground v.1.15,2013-08-11 01:47:00,
2013-08-10 20:49:00,72.4,65.2,30.00,NW,317,0.0,0.0,78,0.00,,,0.00,0,Wunderground v.1.15,2013-08-11 01:49:00,
2013-08-10 20:53:00,72.1,64.9,30.00,NW,317,0.0,0.0,78,0.00,,,0.00,0,Wunderground v.1.15,2013-08-11 01:53:00,
2013-08-10 20:54:00,71.9,65.0,30.00,NW,317,0.0,0.0,79,0.00,,,0.00,0,Wunderground v.1.15,2013-08-11 01:54:00,
2013-08-10 20:55:00,71.8,64.9,30.00,NW,317,0.0,0.0,79,0.00,,,0.00,0,Wunderground v.1.15,2013-08-11 01:55:00,
2013-08-10 20:59:00,71.5,65.0,30.01,NW,317,0.0,0.0,80,0.00,,,0.00,0,Wunderground v.1.15,2013-08-11 01:59:00,
2013-08-10 21:00:00,71.5,65.0,30.01,NW,317,0.0,0.0,80,0.00,,,0.00,0,Wunderground v.1.15,2013-08-11 02:00:00,
2013-08-10 21:03:00,71.7,65.2,30.01,NW,317,0.0,0.0,80,0.00,,,0.00,0,Wunderground v.1.15,2013-08-11 02:03:00,
2013-08-10 21:04:00,71.7,65.2,30.01,NW,317,0.0,0.0,80,0.00,,,0.00,0,Wunderground v.1.15,2013-08-11 02:04:00,
2013-08-10 21:05:00,71.8,64.9,30.01,NW,317,0.0,0.0,79,0.00,,,0.00,0,Wunderground v.1.15,2013-08-11 02:05:00,
2013-08-10 21:06:00,71.9,65.0,30.01,NW,317,0.0,0.0,79,0.00,,,0.00,0,Wunderground v.1.15,2013-08-11 02:06:00,
2013-08-10 21:07:00,72.0,65.1,30.01,NW,317,0.0,0.0,79,0.00,,,0.00,0,Wunderground v.1.15,2013-08-11 02:07:00,
2013-08-10 21:10:00,72.0,65.1,30.01,NW,317,0.0,0.0,79,0.00,,,0.00,0,Wunderground v.1.15,2013-08-11 02:10:00,
2013-08-10 21:11:00,71.9,65.0,30.01,NW,317,0.0,0.0,79,0.00,,,0.00,0,Wunderground v.1.15,2013-08-11 02:11:00,
2013-08-10 21:12:00,71.8,64.9,30.01,NW,317,0.0,0.0,79,0.00,,,0.00,0,Wunderground v.1.15,2013-08-11 02:12:00,
2013-08-10 21:16:00,72.1,64.9,30.01,NW,317,0.0,0.0,78,0.00,,,0.00,0,Wunderground v.1.15,2013-08-11 02:16:00,
2013-08-10 21:17:00,72.2,64.6,30.01,NW,317,0.0,0.0,77,0.00,,,0.00,0,Wunderground v.1.15,2013-08-11 02:17:00,
2013-08-10 21:18:00,72.3,64.7,30.01,NW,317,0.0,0.0,77,0.00,,,0.00,0,Wunderground v.1.15,2013-08-11 02:18:00,
2013-08-10 21:21:00,72.6,64.6,30.01,NW,317,0.0,0.0,76,0.00,,,0.00,0,Wunderground v.1.15,2013-08-11 02:21:00,
2013-08-10 21:22:00,72.7,64.3,30.01,NW,317,0.0,0.0,75,0.00,,,0.00,0,Wunderground v.1.15,2013-08-11 02:22:00,
2013-08-10 21:23:00,72.7,64.3,30.01,NW,317,0.0,0.0,75,0.00,,,0.00,0,Wunderground v.1.15,2013-08-11 02:23:00,
2013-08-10 21:24:00,72.7,64.3,30.01,NW,317,0.0,0.0,75,0.00,,,0.00,0,Wunderground v.1.15,2013-08-11 02:24:00,
2013-08-10 21:25:00,72.6,64.2,30.01,NW,317,0.0,0.0,75,0.00,,,0.00,0,Wunderground v.1.15,2013-08-11 02:25:00,
2013-08-10 21:27:00,72.3,63.9,30.01,NW,317,0.0,0.0,75,0.00,,,0.00,0,Wunderground v.1.15,2013-08-11 02:27:00,
2013-08-10 21:28:00,72.2,63.8,30.01,NW,317,0.0,0.0,75,0.00,,,0.00,0,Wunderground v.1.15,2013-08-11 02:28:00,
2013-08-10 21:30:00,72.0,63.6,30.01,NW,317,0.0,0.0,75,0.00,,,0.00,0,Wunderground v.1.15,2013-08-11 02:30:00,
2013-08-10 21:33:00,72.1,63.7,30.01,NW,317,0.0,0.0,75,0.00,,,0.00,0,Wunderground v.1.15,2013-08-11 02:33:00,
2013-08-10 21:34:00,72.1,63.7,30.01,NW,317,0.0,0.0,75,0.00,,,0.00,0,Wunderground v.1.15,2013-08-11 02:34:00,
2013-08-10 21:37:00,71.7,63.7,30.01,NW,317,0.0,0.0,76,0.00,,,0.00,0,Wunderground v.1.15,2013-08-11 02:37:00,
2013-08-10 21:39:00,71.3,63.7,30.01,NW,317,0.0,0.0,77,0.00,,,0.00,0,Wunderground v.1.15,2013-08-11 02:39:00,
2013-08-10 21:40:00,71.2,63.6,30.01,NW,317,0.0,0.0,77,0.00,,,0.00,0,Wunderground v.1.15,2013-08-11 02:40:00,
2013-08-10 21:42:00,71.1,63.5,30.01,NW,317,0.0,0.0,77,0.00,,,0.00,0,Wunderground v.1.15,2013-08-11 02:42:00,
2013-08-10 21:45:00,71.2,63.6,30.01,NW,317,0.0,0.0,77,0.00,,,0.00,0,Wunderground v.1.15,2013-08-11 02:45:00,
2013-08-10 21:46:00,71.2,63.6,30.01,NW,317,0.0,0.0,77,0.00,,,0.00,0,Wunderground v.1.15,2013-08-11 02:46:00,
2013-08-10 21:47:00,71.3,63.7,30.01,NW,317,0.0,0.0,77,0.00,,,0.00,0,Wunderground v.1.15,2013-08-11 02:47:00,
2013-08-10 21:49:00,71.3,63.7,30.01,NW,317,0.0,0.0,77,0.00,,,0.00,0,Wunderground v.1.15,2013-08-11 02:49:00,
2013-08-10 21:50:00,71.4,63.4,30.01,NW,317,0.0,0.0,76,0.00,,,0.00,0,Wunderground v.1.15,2013-08-11 02:50:00,
2013-08-10 21:52:00,71.2,63.2,30.01,NW,317,0.0,0.0,76,0.00,,,0.00,0,Wunderground v.1.15,2013-08-11 02:52:00,
2013-08-10 21:55:00,71.0,63.4,30.01,NW,317,0.0,0.0,77,0.00,,,0.00,0,Wunderground v.1.15,2013-08-11 02:55:00,
2013-08-10 21:56:00,71.0,63.8,30.01,NW,317,0.0,0.0,78,0.00,,,0.00,0,Wunderground v.1.15,2013-08-11 02:56:00,
2013-08-10 21:58:00,71.0,63.4,30.01,NW,317,0.0,0.0,77,0.00,,,0.00,0,Wunderground v.1.15,2013-08-11 02:58:00,
2013-08-10 22:02:00,70.6,63.4,30.00,NW,317,0.0,0.0,78,0.00,,,0.00,0,Wunderground v.1.15,2013-08-11 03:02:00,
2013-08-10 22:03:00,70.4,63.6,30.00,NW,317,0.0,0.0,79,0.00,,,0.00,0,Wunderground v.1.15,2013-08-11 03:03:00,
2013-08-10 22:04:00,70.4,63.6,30.00,NW,317,0.0,0.0,79,0.00,,,0.00,0,Wunderground v.1.15,2013-08-11 03:04:00,
2013-08-10 22:08:00,70.1,63.3,30.00,NW,317,0.0,0.0,79,0.00,,,0.00,0,Wunderground v.1.15,2013-08-11 03:08:00,
2013-08-10 22:11:00,70.1,63.3,30.00,NW,317,0.0,0.0,79,0.00,,,0.00,0,Wunderground v.1.15,2013-08-11 03:11:00,
2013-08-10 22:12:00,70.1,63.3,30.00,NW,317,0.0,0.0,79,0.00,,,0.00,0,Wunderground v.1.15,2013-08-11 03:12:00,
2013-08-10 22:13:00,70.2,63.7,30.00,NW,317,0.0,0.0,80,0.00,,,0.00,0,Wunderground v.1.15,2013-08-11 03:13:00,
2013-08-10 22:16:00,70.2,63.7,30.00,NW,317,0.0,0.0,80,0.00,,,0.00,0,Wunderground v.1.15,2013-08-11 03:16:00,
2013-08-10 22:17:00,70.1,63.6,30.00,NW,317,0.0,0.0,80,0.00,,,0.00,0,Wunderground v.1.15,2013-08-11 03:17:00,
2013-08-10 22:19:00,70.0,63.5,30.00,NW,317,0.0,0.0,80,0.00,,,0.00,0,Wunderground v.1.15,2013-08-11 03:19:00,
2013-08-10 22:20:00,69.9,63.4,30.00,NW,317,0.0,0.0,80,0.00,,,0.00,0,Wunderground v.1.15,2013-08-11 03:20:00,
2013-08-10 22:23:00,69.8,63.3,30.00,NW,317,0.0,0.0,80,0.00,,,0.00,0,Wunderground v.1.15,2013-08-11 03:23:00,
2013-08-10 22:24:00,69.7,63.6,30.00,NW,317,0.0,0.0,81,0.00,,,0.00,0,Wunderground v.1.15,2013-08-11 03:24:00,
2013-08-10 22:25:00,69.7,63.6,30.00,NW,317,0.0,0.0,81,0.00,,,0.00,0,Wunderground v.1.15,2013-08-11 03:25:00,
2013-08-10 22:28:00,69.6,63.5,30.00,NW,317,0.0,0.0,81,0.00,,,0.00,0,Wunderground v.1.15,2013-08-11 03:28:00,
2013-08-10 22:29:00,69.5,63.4,30.00,NW,317,0.0,0.0,81,0.00,,,0.00,0,Wunderground v.1.15,2013-08-11 03:29:00,
2013-08-10 22:30:00,69.5,63.4,30.00,NW,317,0.0,0.0,81,0.00,,,0.00,0,Wunderground v.1.15,2013-08-11 03:30:00,
2013-08-10 22:31:00,69.4,63.3,30.00,NW,317,0.0,0.0,81,0.00,,,0.00,0,Wunderground v.1.15,2013-08-11 03:31:00,
2013-08-10 22:33:00,69.3,63.6,30.00,NW,317,0.0,0.0,82,0.00,,,0.00,0,Wunderground v.1.15,2013-08-11 03:33:00,
2013-08-10 22:34:00,69.3,63.6,30.00,NW,317,0.0,0.0,82,0.00,,,0.00,0,Wunderground v.1.15,2013-08-11 03:34:00,
2013-08-10 22:35:00,69.2,63.5,30.00,NW,317,0.0,0.0,82,0.00,,,0.00,0,Wunderground v.1.15,2013-08-11 03:35:00,
2013-08-10 22:36:00,69.2,63.5,30.00,NW,317,0.0,0.0,82,0.00,,,0.00,0,Wunderground v.1.15,2013-08-11 03:36:00,
2013-08-10 22:39:00,69.2,63.5,30.00,NW,317,0.0,0.0,82,0.00,,,0.00,0,Wunderground v.1.15,2013-08-11 03:39:00,
2013-08-10 22:40:00,69.1,63.4,30.00,NW,317,0.0,0.0,82,0.00,,,0.00,0,Wunderground v.1.15,2013-08-11 03:40:00,
2013-08-10 22:42:00,69.1,63.4,30.00,NW,317,0.0,0.0,82,0.00,,,0.00,0,Wunderground v.1.15,2013-08-11 03:42:00,
2013-08-10 22:44:00,69.1,63.4,30.00,NW,317,0.0,0.0,82,0.00,,,0.00,0,Wunderground v.1.15,2013-08-11 03:44:00,
2013-08-10 22:46:00,69.0,63.3,30.00,NW,317,0.0,0.0,82,0.00,,,0.00,0,Wunderground v.1.15,2013-08-11 03:46:00,
2013-08-10 22:48:00,69.0,63.3,30.00,NW,317,0.0,0.0,82,0.00,,,0.00,0,Wunderground v.1.15,2013-08-11 03:48:00,
2013-08-10 22:49:00,68.9,63.2,30.00,NW,317,0.0,0.0,82,0.00,,,0.00,0,Wunderground v.1.15,2013-08-11 03:49:00,
2013-08-10 22:52:00,68.9,63.5,30.00,NW,317,0.0,0.0,83,0.00,,,0.00,0,Wunderground v.1.15,2013-08-11 03:52:00,
2013-08-10 22:54:00,68.8,63.1,30.00,NW,317,0.0,0.0,82,0.00,,,0.00,0,Wunderground v.1.15,2013-08-11 03:54:00,
2013-08-10 22:55:00,68.8,63.4,30.00,NW,317,0.0,0.0,83,0.00,,,0.00,0,Wunderground v.1.15,2013-08-11 03:55:00,
2013-08-10 22:57:00,68.7,63.3,30.01,NW,317,0.0,0.0,83,0.00,,,0.00,0,Wunderground v.1.15,2013-08-11 03:57:00,
2013-08-10 22:59:00,68.6,63.2,30.01,NW,317,0.0,0.0,83,0.00,,,0.00,0,Wunderground v.1.15,2013-08-11 03:59:00,
2013-08-10 23:00:00,68.5,63.1,30.01,NW,317,0.0,0.0,83,0.00,,,0.00,0,Wunderground v.1.15,2013-08-11 04:00:00,
2013-08-10 23:01:00,68.5,63.1,30.01,NW,317,0.0,0.0,83,0.00,,,0.00,0,Wunderground v.1.15,2013-08-11 04:01:00,
2013-08-10 23:02:00,68.4,63.0,30.01,NW,317,0.0,0.0,83,0.00,,,0.00,0,Wunderground v.1.15,2013-08-11 04:02:00,
2013-08-10 23:07:00,67.9,62.9,30.01,NW,317,0.0,0.0,84,0.00,,,0.00,0,Wunderground v.1.15,2013-08-11 04:07:00,
2013-08-10 23:09:00,67.8,63.1,30.01,NW,317,0.0,0.0,85,0.00,,,0.00,0,Wunderground v.1.15,2013-08-11 04:09:00,
2013-08-10 23:13:00,67.4,63.1,30.01,NW,317,0.0,0.0,86,0.00,,,0.00,0,Wunderground v.1.15,2013-08-11 04:13:00,
2013-08-10 23:14:00,67.3,63.0,30.01,NW,317,0.0,0.0,86,0.00,,,0.00,0,Wunderground v.1.15,2013-08-11 04:14:00,
2013-08-10 23:16:00,67.1,62.8,30.01,NW,317,0.0,0.0,86,0.00,,,0.00,0,Wunderground v.1.15,2013-08-11 04:16:00,
2013-08-10 23:18:00,67.0,62.7,30.01,NW,317,0.0,0.0,86,0.00,,,0.00,0,Wunderground v.1.15,2013-08-11 04:18:00,
2013-08-10 23:20:00,67.0,63.0,30.01,NW,317,0.0,0.0,87,0.00,,,0.00,0,Wunderground v.1.15,2013-08-11 04:20:00,
2013-08-10 23:22:00,66.9,62.9,30.01,NW,317,0.0,0.0,87,0.00,,,0.00,0,Wunderground v.1.15,2013-08-11 04:22:00,
2013-08-10 23:23:00,66.8,62.8,30.01,NW,317,0.0,0.0,87,0.00,,,0.00,0,Wunderground v.1.15,2013-08-11 04:23:00,
2013-08-10 23:25:00,66.7,62.7,30.01,NW,317,0.0,0.0,87,0.00,,,0.00,0,Wunderground v.1.15,2013-08-11 04:25:00,
2013-08-10 23:26:00,66.7,63.0,30.01,NW,317,0.0,0.0,88,0.00,,,0.00,0,Wunderground v.1.15,2013-08-11 04:26:00,
2013-08-10 23:29:00,66.7,63.0,30.02,NW,317,0.0,0.0,88,0.00,,,0.00,0,Wunderground v.1.15,2013-08-11 04:29:00,
2013-08-10 23:30:00,66.7,63.0,30.02,NW,317,0.0,0.0,88,0.00,,,0.00,0,Wunderground v.1.15,2013-08-11 04:30:00,
2013-08-10 23:31:00,66.7,63.0,30.02,NW,317,0.0,0.0,88,0.00,,,0.00,0,Wunderground v.1.15,2013-08-11 04:31:00,
2013-08-10 23:36:00,66.8,62.8,30.02,NW,317,0.0,0.0,87,0.00,,,0.00,0,Wunderground v.1.15,2013-08-11 04:36:00,
2013-08-10 23:37:00,66.8,62.8,30.02,NW,317,0.0,0.0,87,0.00,,,0.00,0,Wunderground v.1.15,2013-08-11 04:37:00,
2013-08-10 23:39:00,66.7,62.7,30.02,NW,317,0.0,0.0,87,0.00,,,0.00,0,Wunderground v.1.15,2013-08-11 04:39:00,
2013-08-10 23:42:00,66.6,62.9,30.02,NW,317,0.0,0.0,88,0.00,,,0.00,0,Wunderground v.1.15,2013-08-11 04:42:00,
2013-08-10 23:43:00,66.6,62.9,30.02,NW,317,0.0,0.0,88,0.00,,,0.00,0,Wunderground v.1.15,2013-08-11 04:43:00,
2013-08-10 23:45:00,66.6,62.9,30.02,NW,317,0.0,0.0,88,0.00,,,0.00,0,Wunderground v.1.15,2013-08-11 04:45:00,
2013-08-10 23:47:00,66.7,63.0,30.03,NW,317,0.0,0.0,88,0.00,,,0.00,0,Wunderground v.1.15,2013-08-11 04:47:00,
2013-08-10 23:48:00,66.7,63.0,30.02,NW,317,0.0,0.0,88,0.00,,,0.00,0,Wunderground v.1.15,2013-08-11 04:48:00,
2013-08-10 23:49:00,66.7,63.0,30.03,NW,317,0.0,0.0,88,0.00,,,0.00,0,Wunderground v.1.15,2013-08-11 04:49:00,
2013-08-10 23:50:00,66.7,63.0,30.03,NW,317,0.0,0.0,88,0.00,,,0.00,0,Wunderground v.1.15,2013-08-11 04:50:00,
2013-08-10 23:54:00,66.7,62.7,30.03,NW,317,0.0,0.0,87,0.00,,,0.00,0,Wunderground v.1.15,2013-08-11 04:54:00,
2013-08-10 23:55:00,66.5,62.5,30.03,NW,317,0.0,0.0,87,0.00,,,0.00,0,Wunderground v.1.15,2013-08-11 04:55:00,
2013-08-10 23:57:00,66.5,62.8,30.03,NW,317,0.0,0.0,88,0.00,,,0.00,0,Wunderground v.1.15,2013-08-11 04:57:00,
2013-08-10 23:59:00,66.5,62.8,30.03,NW,317,0.0,0.0,88,0.00,,,0.00,0,Wunderground v.1.15,2013-08-11 04:59:00,